K5BWX-3 Weather Reports


time (UTC)temp
C
wind
direction
speed
KPH
gust
KPH
rain 1hr
cm
rain 24hr
cm
rain mn
cm
humidity
%
barometer
mb
20260906044726 24 11 6.4 14.5 0.13 0.13 0.13 89 989.8
20260906044535 24 355 6.4 22.5 0.08 0.08 0.08 89 989.9
20260906044528 24 348 6.4 22.5 0.08 0.08 0.10 89 989.9
20260906044337 24 355 4.8 22.5 0.08 0.08 0.08 89 989.8
20260906044329 24 11 4.8 22.5 0.08 0.08 0.08 89 989.8
20260906044107 24 24 4.8 22.5 0.08 0.08 0.08 89 989.8
20260906044036 24 13 6.4 22.5 0.08 0.08 0.08 89 989.8
20260906044028 24 13 4.8 22.5 0.08 0.08 0.08 89 989.8
20260906043809 24 13 6.4 22.5 0.08 0.08 0.08 89 989.7
20260906043708 24 33 8.0 22.5 0.08 0.08 0.08 89 989.7
20260906043610 24 33 8.0 22.5 0.08 0.08 0.08 89 989.8
20260906043508 24 19 9.7 22.5 0.08 0.08 0.08 89 989.7
20260906043407 24 9 9.7 22.5 0.08 0.08 0.08 89 989.7
20260906043308 24 16 9.7 22.5 0.08 0.08 0.08 89 989.7
20260906043204 24 17 9.7 22.5 0.08 0.08 0.08 89 989.7
20260906043104 24 0 9.7 22.5 0.08 0.08 0.08 89 989.7
20260906043004 24 25 9.7 22.5 0.08 0.08 0.08 89 989.7
20260906042903 24 34 9.7 22.5 0.08 0.08 0.08 89 989.7
20260906042829 24 17 8.0 22.5 0.08 0.08 0.08 89 989.6
20260906042822 24 0 8.0 22.5 0.08 0.08 0.08 89 989.7
20260906042629 24 32 4.8 20.9 0.08 0.08 0.08 89 989.4
20260906042620 24 49 6.4 22.5 0.08 0.08 0.08 89 989.5
20260906042400 24 22 3.2 16.1 0.05 0.05 0.08 89 989.3
20260906042300 24 45 3.2 8.0 0.05 0.05 0.05 89 989.3
20260906042156 24 23 3.2 8.0 0.05 0.05 0.05 89 989.2
20260906042120 24 301 4.8 11.3 0.05 0.05 0.05 88 988.9
20260906042115 24 62 3.2 6.4 0.05 0.05 0.05 88 988.8
20260906042109 24 0 3.2 6.4 0.05 0.05 0.05 88 989.0
20260906042059 24 0 3.2 6.4 0.05 0.05 0.05 89 989.1
20260906042051 24 67 1.6 6.4 0.05 0.05 0.05 88 988.9
20260906042038 24 0 1.6 4.8 0.05 0.05 0.05 89 989.0
20260906042017 24 66 3.2 4.8 0.05 0.05 0.05 88 989.0
20260906041624 24 0 3.2 6.4 0.05 0.05 0.05 88 988.8
20260906041614 24 0 1.6 6.4 0.05 0.05 0.05 88 988.8
20260906041433 24 67 3.2 6.4 0.05 0.05 0.05 88 988.7
20260906041319 24 291 3.2 8.0 0.05 0.05 0.05 88 989.0
20260906041308 24 0 3.2 6.4 0.05 0.05 0.05 88 988.8
20260906041132 24 291 3.2 6.4 0.05 0.05 0.05 88 988.8
20260906040853 24 301 4.8 12.9 0.03 0.03 0.03 88 989.0
20260906040843 24 327 3.2 11.3 0.05 0.05 0.05 88 988.9
20260906040824 24 301 3.2 11.3 0.05 0.05 0.05 88 989.0
20260906040440 24 313 4.8 12.9 0.03 0.03 0.03 88 989.0
20260906040339 24 274 4.8 12.9 0.03 0.03 0.03 88 989.0
20260906040238 24 274 4.8 12.9 0.00 0.00 0.00 88 989.0
20260906040137 24 274 4.8 12.9 0.00 0.00 0.00 88 989.1
20260906040038 24 317 4.8 12.9 0.00 0.00 0.00 88 989.1
20260906035939 24 340 4.8 12.9 0.00 0.00 0.00 88 989.1
20260906035838 24 286 4.8 12.9 0.00 0.00 0.00 88 989.1
20260906035738 24 338 4.8 12.9 0.00 0.00 0.00 88 989.0
20260906035638 24 338 4.8 12.9 0.00 0.00 0.00 88 989.0
20260906035541 24 332 4.8 12.9 0.00 0.00 0.00 87 988.9
20260906035437 24 0 4.8 11.3 0.00 0.00 0.00 87 988.8
20260906035333 24 0 4.8 11.3 0.00 0.00 0.00 87 988.8
20260906035232 24 0 4.8 11.3 0.00 0.00 0.00 87 988.8
20260906035157 24 0 4.8 11.3 0.00 0.00 0.00 87 988.7
20260906035148 24 0 4.8 11.3 0.00 0.00 0.00 87 988.7
20260906034929 24 138 4.8 11.3 0.00 0.00 0.00 87 988.5
20260906034826 24 138 4.8 11.3 0.00 0.00 0.00 87 988.6
20260906034756 24 182 3.2 11.3 0.00 0.00 0.00 88 988.5
20260906034746 24 138 3.2 11.3 0.00 0.00 0.00 87 988.5
20260906034523 24 138 3.2 11.3 0.00 0.00 0.00 88 988.5
20260906034422 24 126 1.6 11.3 0.00 0.00 0.00 88 988.5
20260906034322 24 148 1.6 11.3 0.00 0.00 0.00 88 988.5
20260906034223 24 350 1.6 4.8 0.00 0.00 0.00 88 988.6
20260906034148 24 350 0.0 3.2 0.00 0.00 0.00 88 988.6
20260906034141 24 350 0.0 3.2 0.00 0.00 0.00 88 988.6
20260906033948 24 350 0.0 3.2 0.00 0.00 0.00 88 988.6
20260906033939 24 350 0.0 3.2 0.00 0.00 0.00 88 988.6
20260906033747 24 350 0.0 4.8 0.00 0.00 0.00 88 988.6
20260906033739 24 350 0.0 3.2 0.00 0.00 0.00 88 988.6
20260906033521 24 350 1.6 4.8 0.00 0.00 0.00 88 988.6
20260906033417 24 350 1.6 4.8 0.00 0.00 0.00 88 988.6
20260906033320 24 350 1.6 4.8 0.00 0.00 0.00 88 988.5
20260906033219 24 350 1.6 4.8 0.00 0.00 0.00 88 988.6
20260906033114 24 350 1.6 4.8 0.00 0.00 0.00 88 988.4
20260906033015 24 350 1.6 4.8 0.00 0.00 0.00 87 988.5
20260906032914 24 350 1.6 4.8 0.00 0.00 0.00 87 988.5
20260906032839 24 350 0.0 4.8 0.00 0.00 0.00 87 988.4
20260906032831 24 350 1.6 4.8 0.00 0.00 0.00 87 988.4
20260906032638 24 350 0.0 4.8 0.00 0.00 0.00 87 988.3
20260906032629 24 350 0.0 4.8 0.00 0.00 0.00 87 988.3
20260906032412 24 350 0.0 0.0 0.00 0.00 0.00 87 988.3
20260906032331 24 350 0.0 0.0 0.00 0.00 0.00 87 988.3
20260906032324 24 350 0.0 0.0 0.00 0.00 0.00 87 988.3
20260906032102 24 350 0.0 0.0 0.00 0.00 0.00 87 988.3
20260906032002 24 350 0.0 0.0 0.00 0.00 0.00 87 988.3
20260906031901 24 350 0.0 0.0 0.00 0.00 0.00 87 988.3
20260906031801 24 350 0.0 0.0 0.00 0.00 0.00 87 988.4
20260906031659 24 350 0.0 0.0 0.00 0.00 0.00 87 988.4
20260906031557 24 350 0.0 0.0 0.00 0.00 0.00 87 988.4
20260906031452 24 350 0.0 0.0 0.00 0.00 0.00 87 988.3
20260906031352 24 350 0.0 0.0 0.00 0.00 0.00 87 988.3
20260906031252 24 350 0.0 0.0 0.00 0.00 0.00 87 988.3
20260906031149 24 350 0.0 0.0 0.00 0.00 0.00 87 988.3
20260906031113 24 350 0.0 0.0 0.00 0.00 0.00 87 988.3
20260906031104 24 350 0.0 0.0 0.00 0.00 0.00 87 988.3
20260906030844 24 350 0.0 0.0 0.00 0.00 0.00 87 988.4
20260906030742 24 350 0.0 0.0 0.00 0.00 0.00 87 988.3
20260906030709 24 350 0.0 0.0 0.00 0.00 0.00 87 988.3
20260906030702 24 350 0.0 0.0 0.00 0.00 0.00 87 988.3
20260906030438 24 350 0.0 0.0 0.00 0.00 0.00 87 988.3
20260906030339 24 350 0.0 0.0 0.00 0.00 0.00 87 988.3
20260906030304 24 350 0.0 0.0 0.00 0.00 0.00 87 988.3
20260906030256 24 350 0.0 0.0 0.00 0.00 0.00 87 988.4
20260906030035 24 350 0.0 0.0 0.00 0.00 0.00 87 988.3
20260906025934 24 350 0.0 0.0 0.00 0.00 0.00 87 988.3
20260906025833 24 350 0.0 0.0 0.00 0.00 0.00 87 988.3
20260906025731 24 350 0.0 0.0 0.00 0.00 0.00 87 988.3
20260906025632 24 350 0.0 0.0 0.00 0.00 0.00 87 988.3
20260906025529 24 350 0.0 0.0 0.00 0.00 0.00 87 988.3
20260906025425 24 350 0.0 0.0 0.00 0.00 0.00 87 988.3
20260906025321 24 350 0.0 0.0 0.00 0.00 0.00 87 988.3
20260906025223 24 350 0.0 0.0 0.00 0.00 0.00 87 988.2
20260906025122 24 350 0.0 0.0 0.00 0.00 0.00 87 988.3
20260906025021 24 350 0.0 1.6 0.00 0.00 0.00 87 988.2
20260906024919 24 350 0.0 1.6 0.00 0.00 0.00 87 988.2
20260906024845 24 350 0.0 1.6 0.00 0.00 0.00 87 988.2
20260906024836 24 350 0.0 1.6 0.00 0.00 0.00 87 988.2
20260906024615 24 350 0.0 1.6 0.00 0.00 0.00 87 988.2
20260906024515 24 350 0.0 1.6 0.00 0.00 0.00 87 988.2
20260906024413 24 350 0.0 1.6 0.00 0.00 0.00 87 988.2
20260906024310 24 350 0.0 1.6 0.00 0.00 0.00 88 988.2
20260906024211 24 350 0.0 1.6 0.00 0.00 0.00 88 988.3
20260906024109 24 350 0.0 1.6 0.00 0.00 0.00 88 988.3
20260906024009 24 350 0.0 1.6 0.00 0.00 0.00 88 988.3
20260906023906 24 350 0.0 3.2 0.00 0.00 0.00 88 988.3
20260906023805 25 350 0.0 3.2 0.00 0.00 0.00 88 988.4
20260906023704 25 350 1.6 3.2 0.00 0.00 0.00 87 988.3
20260906023602 25 350 1.6 3.2 0.00 0.00 0.00 87 988.3
20260906023503 25 350 1.6 3.2 0.00 0.00 0.00 87 988.2
20260906023401 25 350 1.6 3.2 0.00 0.00 0.00 87 988.2
20260906023258 25 350 1.6 3.2 0.00 0.00 0.00 87 988.2
20260906023158 25 350 1.6 3.2 0.00 0.00 0.00 87 988.2
20260906023056 25 350 1.6 3.2 0.00 0.00 0.00 87 988.2
20260906022957 25 350 1.6 3.2 0.00 0.00 0.00 87 988.1
20260906022856 25 350 1.6 4.8 0.00 0.00 0.00 87 988.1
20260906022757 25 350 1.6 4.8 0.00 0.00 0.00 87 988.1
20260906022659 25 350 1.6 4.8 0.00 0.00 0.00 87 988.1
20260906022554 25 350 1.6 4.8 0.00 0.00 0.00 87 988.0
20260906022455 25 350 1.6 4.8 0.00 0.00 0.00 87 988.1
20260906022353 25 350 1.6 4.8 0.00 0.00 0.00 87 988.1
20260906022251 25 350 1.6 4.8 0.00 0.00 0.00 87 988.1
20260906022144 25 350 3.2 4.8 0.00 0.00 0.00 87 988.1
20260906022044 25 350 3.2 4.8 0.00 0.00 0.00 87 987.9
20260906022012 25 350 1.6 6.4 0.00 0.00 0.00 87 988.0
20260906022004 25 350 3.2 6.4 0.00 0.00 0.00 87 988.0
20260906021811 25 350 1.6 6.4 0.00 0.00 0.00 86 987.9
20260906021802 25 350 1.6 6.4 0.00 0.00 0.00 86 988.0
20260906021541 25 350 1.6 6.4 0.00 0.00 0.00 86 987.9
20260906021441 25 350 1.6 6.4 0.00 0.00 0.00 86 987.8
20260906021342 25 350 3.2 6.4 0.00 0.00 0.00 86 987.7
20260906021242 25 350 3.2 6.4 0.00 0.00 0.00 86 987.7
20260906021143 25 350 3.2 6.4 0.00 0.00 0.00 86 987.7
20260906021043 25 311 1.6 6.4 0.00 0.00 0.00 86 987.9
20260906020944 25 117 1.6 4.8 0.00 0.00 0.00 86 987.8
20260906020841 25 117 1.6 4.8 0.00 0.00 0.00 86 987.8
20260906020742 25 117 1.6 4.8 0.00 0.00 0.00 85 987.6
20260906020640 25 117 1.6 4.8 0.00 0.00 0.00 86 987.7
20260906020539 25 117 1.6 4.8 0.00 0.00 0.00 86 987.6
20260906020439 25 117 1.6 4.8 0.00 0.00 0.00 86 987.7
20260906020335 25 117 1.6 4.8 0.00 0.00 0.00 85 987.6
20260906020237 25 117 0.0 4.8 0.00 0.00 0.00 86 987.6
20260906020133 25 117 0.0 3.2 0.00 0.00 0.00 86 987.5
20260906020032 25 117 0.0 3.2 0.00 0.00 0.00 85 987.5
20260906015933 25 117 0.0 3.2 0.00 0.00 0.00 85 987.5
20260906015830 25 117 0.0 3.2 0.00 0.00 0.00 85 987.5
20260906015754 25 117 0.0 3.2 0.00 0.00 0.00 85 987.4
20260906015747 25 117 0.0 3.2 0.00 0.00 0.00 85 987.6
20260906015556 25 117 1.6 3.2 0.00 0.00 0.00 85 987.3
20260906015547 25 117 1.6 3.2 0.00 0.00 0.00 85 987.4
20260906015325 25 117 1.6 3.2 0.00 0.00 0.00 85 987.3
20260906015226 25 117 1.6 4.8 0.00 0.00 0.00 85 987.3
20260906015123 25 117 1.6 4.8 0.00 0.00 0.00 85 987.2
20260906015022 25 117 1.6 4.8 0.00 0.00 0.00 85 987.3
20260906015012 25 117 1.6 4.8 0.00 0.00 0.00 85 987.2
20260906015007 25 117 1.6 4.8 0.00 0.00 0.00 85 987.3
20260906014951 25 117 1.6 4.8 0.00 0.00 0.00 85 987.2
20260906014616 25 96 1.6 4.8 0.00 0.00 0.00 85 987.3
20260906014514 25 96 1.6 4.8 0.00 0.00 0.00 85 987.2
20260906014413 25 96 1.6 4.8 0.00 0.00 0.00 85 987.3
20260906014407 25 144 1.6 4.8 0.00 0.00 0.00 85 987.3
20260906014402 25 144 3.2 6.4 0.00 0.00 0.00 85 987.3
20260906014345 25 96 1.6 4.8 0.00 0.00 0.00 85 987.2
20260906014009 25 144 3.2 8.0 0.00 0.00 0.00 85 987.4
20260906013911 25 144 3.2 8.0 0.00 0.00 0.00 85 987.3
20260906013809 25 144 3.2 8.0 0.00 0.00 0.00 85 987.3
20260906013711 26 144 3.2 8.0 0.00 0.00 0.00 85 987.4
20260906013607 26 144 3.2 8.0 0.00 0.00 0.00 84 987.3
20260906013507 26 144 3.2 8.0 0.00 0.00 0.00 84 987.4
20260906013407 26 144 3.2 9.7 0.00 0.00 0.00 84 987.5
20260906013307 26 144 3.2 9.7 0.00 0.00 0.00 84 987.5
20260906013207 26 143 3.2 9.7 0.00 0.00 0.00 84 987.5
20260906013134 26 307 3.2 9.7 0.00 0.00 0.00 83 987.4
20260906013127 26 147 3.2 9.7 0.00 0.00 0.00 83 987.5
20260906012906 26 307 3.2 9.7 0.00 0.00 0.00 83 987.5
20260906012802 26 307 3.2 9.7 0.00 0.00 0.00 83 987.6
20260906012703 26 307 4.8 9.7 0.00 0.00 0.00 83 987.6
20260906012628 26 325 3.2 9.7 0.00 0.00 0.00 81 987.7
20260906012619 26 307 3.2 9.7 0.00 0.00 0.00 83 987.7
20260906012358 26 17 3.2 6.4 0.00 0.00 0.00 81 987.7
20260906012257 26 17 3.2 6.4 0.00 0.00 0.00 81 987.6
20260906012156 27 17 1.6 6.4 0.00 0.00 0.00 80 987.5
20260906012056 27 17 1.6 6.4 0.00 0.00 0.00 80 987.6
20260906011954 27 17 1.6 6.4 0.00 0.00 0.00 80 987.5
20260906011851 27 17 1.6 6.4 0.00 0.00 0.00 80 987.4
20260906011750 27 17 0.0 6.4 0.00 0.00 0.00 80 987.4
20260906011648 27 340 0.0 4.8 0.00 0.00 0.00 80 987.4
20260906011548 27 340 1.6 4.8 0.00 0.00 0.00 80 987.4
20260906011447 27 340 1.6 4.8 0.00 0.00 0.00 80 987.4
20260906011346 27 340 1.6 6.4 0.00 0.00 0.00 79 987.4
20260906011310 27 340 3.2 8.0 0.00 0.00 0.00 78 987.6
20260906011301 27 340 3.2 6.4 0.00 0.00 0.00 79 987.5
20260906011051 27 340 3.2 8.0 0.00 0.00 0.00 78 987.7
20260906011041 27 340 3.2 8.0 0.00 0.00 0.00 78 987.7
20260906011034 28 340 4.8 8.0 0.00 0.00 0.00 77 987.7
20260906011016 27 340 3.2 8.0 0.00 0.00 0.00 78 987.7
20260906010637 28 340 4.8 8.0 0.00 0.00 0.00 77 987.7
20260906010538 28 340 3.2 8.0 0.00 0.00 0.00 77 987.8
20260906010438 28 340 3.2 8.0 0.00 0.00 0.00 76 987.8
20260906010405 28 341 4.8 14.5 0.00 0.00 0.00 75 987.8
20260906010356 28 321 3.2 8.0 0.00 0.00 0.00 76 987.9
20260906010138 28 76 4.8 17.7 0.00 0.00 0.00 73 988.0
20260906010039 28 76 6.4 19.3 0.00 0.00 0.00 74 987.8
20260906010004 28 171 8.0 19.3 0.00 0.00 0.00 71 987.9
20260906005955 28 135 6.4 19.3 0.00 0.00 0.00 73 987.9
20260906005737 28 190 8.0 19.3 0.00 0.00 0.00 70 987.8
20260906005633 28 190 8.0 19.3 0.00 0.00 0.00 70 987.9
20260906005532 28 40 8.0 19.3 0.00 0.00 0.00 71 987.9
20260906005430 28 40 8.0 19.3 0.00 0.00 0.00 71 988.0
20260906005329 28 39 8.0 19.3 0.00 0.00 0.00 71 988.1
20260906005258 28 29 6.4 19.3 0.00 0.00 0.00 71 988.0
20260906005248 28 355 8.0 19.3 0.00 0.00 0.00 71 988.0
20260906005027 28 13 6.4 17.7 0.00 0.00 0.00 72 988.0
20260906004951 28 11 4.8 16.1 0.00 0.00 0.00 72 987.8
20260906004941 28 32 4.8 16.1 0.00 0.00 0.00 72 988.1
20260906004721 28 20 3.2 11.3 0.00 0.00 0.00 72 987.7
20260906004649 28 195 3.2 8.0 0.00 0.00 0.00 72 987.5
20260906004640 28 195 3.2 8.0 0.00 0.00 0.00 72 987.6
20260906004419 28 195 3.2 8.0 0.00 0.00 0.00 71 987.6
20260906004319 28 171 1.6 8.0 0.00 0.00 0.00 71 987.5
20260906004218 28 171 1.6 8.0 0.00 0.00 0.00 71 987.5
20260906004117 28 99 1.6 8.0 0.00 0.00 0.00 71 987.4
20260906004016 28 99 1.6 8.0 0.00 0.00 0.00 70 987.5
20260906003915 28 99 1.6 8.0 0.00 0.00 0.00 70 987.4
20260906003816 28 99 1.6 8.0 0.00 0.00 0.00 70 987.4
20260906003718 28 99 1.6 8.0 0.00 0.00 0.00 70 987.3
20260906003615 28 100 3.2 8.0 0.00 0.00 0.00 70 987.4
20260906003516 28 99 3.2 8.0 0.00 0.00 0.00 69 987.3
20260906003411 28 99 3.2 8.0 0.00 0.00 0.00 69 987.3
20260906003340 28 99 3.2 8.0 0.00 0.00 0.00 69 987.3
20260906003332 28 99 3.2 8.0 0.00 0.00 0.00 69 987.3
20260906003107 28 99 3.2 8.0 0.00 0.00 0.00 69 987.4
20260906003038 29 205 3.2 8.0 0.00 0.00 0.00 69 987.5
20260906003027 28 99 3.2 8.0 0.00 0.00 0.00 69 987.5
20260906002829 29 190 3.2 8.0 0.00 0.00 0.00 69 987.5
20260906002822 29 205 3.2 8.0 0.00 0.00 0.00 69 987.6
20260906002602 29 216 3.2 8.0 0.00 0.00 0.00 68 987.5
20260906002530 29 216 3.2 6.4 0.00 0.00 0.00 67 987.5
20260906002521 29 216 3.2 6.4 0.00 0.00 0.00 68 987.5
20260906002329 29 216 3.2 6.4 0.00 0.00 0.00 67 987.5
20260906002321 29 216 3.2 6.4 0.00 0.00 0.00 67 987.5
20260906002131 29 216 3.2 6.4 0.00 0.00 0.00 67 987.4
20260906002121 29 216 3.2 6.4 0.00 0.00 0.00 67 987.5
20260906001858 29 216 3.2 6.4 0.00 0.00 0.00 67 987.4
20260906001756 30 216 3.2 6.4 0.00 0.00 0.00 66 987.4
20260906001655 30 188 3.2 4.8 0.00 0.00 0.00 66 987.4
20260906001554 30 188 3.2 4.8 0.00 0.00 0.00 66 987.4
20260906001453 30 188 1.6 4.8 0.00 0.00 0.00 66 987.4
20260906001354 30 188 1.6 4.8 0.00 0.00 0.00 66 987.4
20260906001250 30 188 1.6 4.8 0.00 0.00 0.00 66 987.5
20260906001146 30 188 1.6 4.8 0.00 0.00 0.00 66 987.5
20260906001047 30 188 1.6 6.4 0.00 0.00 0.00 66 987.4
20260906000946 30 188 1.6 6.4 0.00 0.00 0.00 66 987.5
20260906000852 30 188 1.6 6.4 0.00 0.00 0.00 66 987.4
20260906000744 30 163 1.6 6.4 0.00 0.00 0.00 66 987.5
20260906000637 30 163 3.2 6.4 0.00 0.00 0.00 66 987.4
20260906000537 30 163 3.2 6.4 0.00 0.00 0.00 66 987.4
20260906000505 30 163 3.2 8.0 0.00 0.00 0.00 67 987.3
20260906000456 30 163 3.2 8.0 0.00 0.00 0.00 66 987.4
20260906000234 30 163 3.2 9.7 0.00 0.00 0.00 67 987.4
20260906000134 30 163 3.2 9.7 0.00 0.00 0.00 66 987.3
20260906000101 30 161 3.2 9.7 0.00 0.00 0.00 65 987.4
20260906000053 30 174 3.2 9.7 0.00 0.00 0.00 66 987.3
20260905235832 30 88 3.2 9.7 0.00 0.00 0.00 65 987.4
20260905235729 30 88 4.8 9.7 0.00 0.00 0.00 65 987.7
20260905235623 30 88 4.8 9.7 0.00 0.00 0.00 64 987.4
20260905235521 30 88 4.8 9.7 0.00 0.00 0.00 64 987.4
20260905235423 30 98 4.8 9.7 0.00 0.00 0.00 64 987.4
20260905235323 30 98 4.8 9.7 0.00 0.00 0.00 64 987.5
20260905235223 30 98 4.8 8.0 0.00 0.00 0.00 63 987.5
20260905235111 30 145 4.8 8.0 0.00 0.00 0.00 63 987.6
20260905235009 30 145 4.8 8.0 0.00 0.00 0.00 63 987.6
20260905234909 30 145 4.8 8.0 0.00 0.00 0.00 63 987.6
20260905234807 30 145 4.8 8.0 0.00 0.00 0.00 63 987.6
20260905234708 30 145 4.8 8.0 0.00 0.00 0.00 63 987.4
20260905234604 30 145 4.8 8.0 0.00 0.00 0.00 63 987.4
20260905234528 30 145 4.8 8.0 0.00 0.00 0.00 63 987.3
20260905234521 30 145 4.8 8.0 0.00 0.00 0.00 63 987.3
20260905234302 30 177 4.8 8.0 0.00 0.00 0.00 63 987.3
20260905234202 30 177 4.8 8.0 0.00 0.00 0.00 63 987.1
20260905234102 31 177 4.8 8.0 0.00 0.00 0.00 62 987.2
20260905234000 31 177 4.8 8.0 0.00 0.00 0.00 62 987.1
20260905233859 31 177 4.8 8.0 0.00 0.00 0.00 62 987.3
20260905233828 31 177 6.4 11.3 0.00 0.00 0.00 62 987.3
20260905233818 31 177 4.8 11.3 0.00 0.00 0.00 62 987.1
20260905233645 31 152 6.4 11.3 0.00 0.00 0.00 61 987.2
20260905233641 31 155 6.4 11.3 0.00 0.00 0.00 61 987.3
20260905233622 31 152 6.4 11.3 0.00 0.00 0.00 61 987.3
20260905233314 31 152 6.4 11.3 0.00 0.00 0.00 61 987.2
20260905233306 31 152 6.4 11.3 0.00 0.00 0.00 61 987.2
20260905233110 31 153 4.8 11.3 0.00 0.00 0.00 60 987.2
20260905233100 31 151 6.4 11.3 0.00 0.00 0.00 61 987.2
20260905232912 31 142 4.8 9.7 0.00 0.00 0.00 60 987.2
20260905232902 31 141 4.8 11.3 0.00 0.00 0.00 61 987.1
20260905232640 31 139 3.2 8.0 0.00 0.00 0.00 60 987.2
20260905232536 31 135 3.2 8.0 0.00 0.00 0.00 60 987.3
20260905232433 31 127 3.2 8.0 0.00 0.00 0.00 60 987.2
20260905232335 31 132 3.2 8.0 0.00 0.00 0.00 59 987.3
20260905232233 31 142 3.2 8.0 0.00 0.00 0.00 60 987.3
20260905232135 31 141 3.2 4.8 0.00 0.00 0.00 60 987.3
20260905232050 32 90 3.2 4.8 0.00 0.00 0.00 60 987.2
20260905232039 31 90 1.6 4.8 0.00 0.00 0.00 60 987.3
20260905231849 32 90 1.6 4.8 0.00 0.00 0.00 57 987.3
20260905231840 32 90 3.2 4.8 0.00 0.00 0.00 58 987.3
20260905231622 32 90 1.6 4.8 0.00 0.00 0.00 57 987.4
20260905231515 32 90 1.6 4.8 0.00 0.00 0.00 57 987.3
20260905231413 32 90 1.6 4.8 0.00 0.00 0.00 58 987.3
20260905231342 32 355 1.6 4.8 0.00 0.00 0.00 59 987.2
20260905231333 32 90 1.6 4.8 0.00 0.00 0.00 59 987.3
20260905231114 32 355 1.6 4.8 0.00 0.00 0.00 58 987.2
20260905231010 32 355 1.6 4.8 0.00 0.00 0.00 58 987.2
20260905230907 32 305 1.6 4.8 0.00 0.00 0.00 58 987.3
20260905230809 32 17 1.6 4.8 0.00 0.00 0.00 58 987.2
20260905230706 32 17 1.6 4.8 0.00 0.00 0.00 58 987.2
20260905230607 32 17 1.6 4.8 0.00 0.00 0.00 59 987.2
20260905230503 32 17 1.6 9.7 0.00 0.00 0.00 59 987.2
20260905230401 32 17 3.2 9.7 0.00 0.00 0.00 59 987.2
20260905230335 32 142 3.2 9.7 0.00 0.00 0.00 58 987.3
20260905230325 32 17 3.2 9.7 0.00 0.00 0.00 58 987.2
20260905230131 32 142 3.2 9.7 0.00 0.00 0.00 58 987.2
20260905230122 32 142 3.2 9.7 0.00 0.00 0.00 58 987.2
20260905225902 32 142 3.2 9.7 0.00 0.00 0.00 58 987.2
20260905225759 32 142 3.2 9.7 0.00 0.00 0.00 58 987.2
20260905225733 32 161 4.8 9.7 0.00 0.00 0.00 58 987.2
20260905225723 32 181 3.2 9.7 0.00 0.00 0.00 58 987.1
20260905225459 32 180 4.8 9.7 0.00 0.00 0.00 58 987.1
20260905225359 32 169 4.8 9.7 0.00 0.03 0.00 59 987.1
20260905225300 32 159 4.8 11.3 0.00 0.03 0.00 58 987.2
20260905225157 32 175 4.8 14.5 0.00 0.03 0.00 58 987.1
20260905225059 32 132 4.8 14.5 0.00 0.03 0.00 59 987.1
20260905224957 32 138 4.8 14.5 0.00 0.03 0.00 58 987.2
20260905224854 32 128 4.8 14.5 0.00 0.03 0.00 59 987.2
20260905224754 32 128 4.8 14.5 0.00 0.03 0.00 58 987.2
20260905224720 32 139 4.8 14.5 0.00 0.03 0.00 58 987.2
20260905224711 32 136 4.8 14.5 0.00 0.03 0.00 58 987.2
20260905224450 32 157 4.8 14.5 0.00 0.03 0.00 58 987.1
20260905224420 31 163 4.8 14.5 0.00 0.03 0.00 58 987.1
20260905224410 32 128 4.8 14.5 0.00 0.03 0.00 58 987.1
20260905224150 32 142 6.4 20.9 0.00 0.03 0.00 58 987.0
20260905224059 32 93 8.0 20.9 0.00 0.03 0.00 58 987.0
20260905224050 32 123 6.4 20.9 0.00 0.03 0.00 58 987.0
20260905224043 32 129 8.0 20.9 0.00 0.03 0.00 58 987.1
20260905224025 32 131 6.4 20.9 0.00 0.03 0.00 58 987.1
20260905223645 31 163 9.7 25.7 0.00 0.03 0.00 59 987.1
20260905223547 31 130 11.3 25.7 0.00 0.03 0.00 59 987.1
20260905223445 31 146 12.9 25.7 0.00 0.03 0.00 58 987.1
20260905223414 31 173 12.9 25.7 0.00 0.03 0.00 58 987.3
20260905223405 31 134 12.9 25.7 0.00 0.03 0.00 59 987.2
20260905223145 31 172 14.5 25.7 0.00 0.03 0.00 58 987.3
20260905223056 31 146 14.5 25.7 0.00 0.03 0.00 58 987.4
20260905223046 31 173 14.5 25.7 0.00 0.03 0.00 58 987.2
20260905223039 31 165 14.5 25.7 0.00 0.03 0.00 57 987.4
20260905223022 31 205 14.5 25.7 0.00 0.03 0.00 58 987.3
20260905222645 31 168 12.9 25.7 0.00 0.03 0.00 57 987.3
20260905222547 32 163 12.9 25.7 0.00 0.03 0.00 58 987.3
20260905222446 32 155 12.9 19.3 0.00 0.03 0.00 58 987.2
20260905222414 31 144 14.5 35.4 0.00 0.03 0.00 58 987.3
20260905222403 31 184 12.9 25.7 0.00 0.03 0.00 59 987.2
20260905222145 31 153 14.5 35.4 0.00 0.03 0.00 59 987.2
20260905222043 31 192 14.5 35.4 0.00 0.03 0.00 59 987.3
20260905222019 31 119 16.1 35.4 0.00 0.03 0.00 59 987.4
20260905222006 31 155 14.5 35.4 0.00 0.03 0.00 59 987.3
20260905221744 31 134 17.7 35.4 0.00 0.03 0.00 58 987.4
20260905221639 31 171 17.7 35.4 0.00 0.03 0.00 58 987.4
20260905221540 31 150 17.7 35.4 0.00 0.03 0.00 58 987.4
20260905221439 32 168 17.7 35.4 0.00 0.03 0.00 58 987.5
20260905221339 32 170 19.3 35.4 0.00 0.03 0.00 58 987.5
20260905221241 32 133 19.3 37.0 0.00 0.03 0.00 57 987.5
20260905221140 32 161 19.3 37.0 0.00 0.03 0.00 57 987.5
20260905221039 32 134 19.3 37.0 0.00 0.03 0.00 57 987.6
20260905220940 32 145 19.3 37.0 0.00 0.03 0.00 57 987.6
20260905220840 32 142 19.3 37.0 0.00 0.03 0.00 56 987.6
20260905220811 33 142 19.3 37.0 0.00 0.03 0.00 56 987.6
20260905220801 32 151 19.3 37.0 0.00 0.03 0.00 56 987.6
20260905220539 33 177 20.9 37.0 0.00 0.03 0.00 55 987.6
20260905220440 33 150 20.9 38.6 0.00 0.03 0.00 55 987.6
20260905220411 33 161 17.7 38.6 0.00 0.03 0.00 54 987.6
20260905220401 33 179 19.3 38.6 0.00 0.03 0.00 54 987.7
20260905220139 34 161 16.1 38.6 0.00 0.03 0.00 53 987.6
20260905220040 34 182 16.1 38.6 0.00 0.03 0.00 53 987.6
20260905220009 34 142 14.5 38.6 0.00 0.03 0.00 52 987.5
20260905220000 34 154 16.1 38.6 0.00 0.03 0.00 52 987.5
20260905215740 35 137 14.5 38.6 0.00 0.03 0.00 52 987.5
20260905215639 35 155 12.9 38.6 0.00 0.03 0.00 50 987.5
20260905215539 35 140 11.3 38.6 0.00 0.03 0.00 51 987.5
20260905215510 35 148 9.7 19.3 0.00 0.03 0.00 50 987.4
20260905215502 35 148 9.7 38.6 0.00 0.03 0.00 51 987.3
20260905215240 35 115 9.7 19.3 0.00 0.03 0.00 50 987.3
20260905215141 35 142 9.7 19.3 0.00 0.03 0.00 50 987.1
20260905215035 35 146 9.7 19.3 0.00 0.03 0.00 50 987.2
20260905214935 35 98 9.7 19.3 0.00 0.03 0.00 50 987.1
20260905214907 35 110 9.7 20.9 0.00 0.03 0.00 51 987.2
20260905214855 35 107 9.7 20.9 0.00 0.03 0.00 50 987.2
20260905214635 35 95 9.7 20.9 0.00 0.03 0.00 51 987.2
20260905214536 35 157 9.7 20.9 0.00 0.03 0.00 50 987.1
20260905214459 35 79 9.7 20.9 0.00 0.03 0.00 49 987.1
20260905214452 35 94 9.7 20.9 0.00 0.03 0.00 49 987.1
20260905214232 35 101 8.0 20.9 0.00 0.03 0.00 49 987.1
20260905214144 35 96 6.4 19.3 0.00 0.03 0.00 50 987.1
20260905214134 35 86 8.0 20.9 0.00 0.03 0.00 49 987.0
20260905214127 35 94 6.4 16.1 0.00 0.03 0.00 50 987.2
20260905214108 35 97 6.4 20.9 0.00 0.03 0.00 50 987.1
20260905213732 35 105 4.8 16.1 0.00 0.03 0.00 51 987.1
20260905213634 35 126 4.8 14.5 0.00 0.03 0.00 51 987.1
20260905213533 35 130 4.8 20.9 0.00 0.03 0.00 51 987.0
20260905213431 35 71 4.8 20.9 0.00 0.03 0.00 51 987.1
20260905213332 35 55 4.8 20.9 0.00 0.03 0.00 52 987.1
20260905213231 35 180 4.8 20.9 0.00 0.03 0.00 52 987.1
20260905213132 35 44 6.4 20.9 0.00 0.03 0.00 51 987.1
20260905213100 35 107 6.4 20.9 0.00 0.03 0.00 51 987.0
20260905213051 35 58 6.4 20.9 0.00 0.03 0.00 51 987.0
20260905212903 35 86 8.0 20.9 0.00 0.03 0.00 50 987.0
20260905212858 35 22 9.7 22.5 0.00 0.03 0.00 50 987.0
20260905212850 35 84 8.0 20.9 0.00 0.03 0.00 50 987.0
20260905212724 35 95 9.7 22.5 0.00 0.03 0.00 50 987.0
20260905212709 35 121 9.7 20.9 0.00 0.03 0.00 50 987.0
20260905212330 35 76 11.3 22.5 0.00 0.03 0.00 50 987.1
20260905212232 35 119 11.3 22.5 0.00 0.03 0.00 50 987.1
20260905212131 35 123 11.3 22.5 0.00 0.03 0.00 49 987.1
20260905212032 36 74 9.7 22.5 0.00 0.03 0.00 49 987.1
20260905211932 36 101 9.7 22.5 0.00 0.03 0.00 48 987.1
20260905211832 36 57 9.7 22.5 0.00 0.03 0.00 48 987.1
20260905211732 36 65 8.0 22.5 0.00 0.03 0.00 48 987.1
20260905211633 36 79 8.0 22.5 0.00 0.03 0.00 47 987.1
20260905211531 36 37 8.0 22.5 0.00 0.03 0.00 47 987.0
20260905211443 37 5 8.0 17.7 0.00 0.03 0.00 47 987.0
20260905211433 37 54 8.0 17.7 0.00 0.03 0.00 47 987.0
20260905211427 37 88 6.4 14.5 0.00 0.03 0.00 45 987.0
20260905211408 37 70 8.0 17.7 0.00 0.03 0.00 47 987.1
20260905211031 37 57 6.4 14.5 0.00 0.03 0.00 45 987.0
20260905210931 37 39 6.4 12.9 0.00 0.03 0.00 47 986.9
20260905210831 37 90 8.0 12.9 0.00 0.03 0.00 47 986.8
20260905210732 37 19 8.0 17.7 0.00 0.03 0.00 45 986.9
20260905210632 37 25 8.0 19.3 0.00 0.03 0.00 45 987.0
20260905210532 37 0 8.0 19.3 0.00 0.03 0.00 45 987.0
20260905210432 37 63 8.0 19.3 0.00 0.03 0.00 45 987.0
20260905210328 37 55 9.7 19.3 0.00 0.03 0.00 45 987.0
20260905210226 37 22 9.7 19.3 0.00 0.03 0.00 45 987.1
20260905210122 37 34 8.0 19.3 0.00 0.03 0.00 45 987.1
20260905210024 38 19 8.0 19.3 0.00 0.03 0.00 47 987.0
20260905205921 38 0 8.0 19.3 0.00 0.03 0.00 45 987.1
20260905205817 38 15 8.0 19.3 0.00 0.03 0.00 45 987.1
20260905205716 38 338 8.0 17.7 0.00 0.03 0.00 44 987.1
20260905205647 38 334 8.0 17.7 0.00 0.03 0.00 44 987.0
20260905205637 38 347 8.0 17.7 0.00 0.03 0.00 44 987.0
20260905205445 38 273 8.0 17.7 0.00 0.03 0.00 43 987.0
20260905205435 38 323 8.0 17.7 0.00 0.03 0.00 43 987.0
20260905205213 38 273 8.0 17.7 0.00 0.03 0.00 43 986.9
20260905205110 38 0 8.0 17.7 0.00 0.03 0.00 43 986.9
20260905205009 38 47 8.0 17.7 0.00 0.03 0.00 43 987.0
20260905204909 38 346 8.0 17.7 0.00 0.03 0.00 43 987.0
20260905204756 38 325 6.4 16.1 0.00 0.03 0.00 43 987.0
20260905204658 38 32 6.4 14.5 0.00 0.03 0.00 44 987.1
20260905204555 38 5 6.4 14.5 0.00 0.03 0.00 44 987.1
20260905204456 38 31 6.4 12.9 0.00 0.03 0.00 44 987.1
20260905204355 38 346 4.8 12.9 0.00 0.03 0.00 43 987.0
20260905204248 38 338 4.8 12.9 0.00 0.03 0.00 44 987.1
20260905204149 38 290 4.8 12.9 0.00 0.03 0.00 43 987.1
20260905204051 38 339 4.8 12.9 0.00 0.03 0.00 44 987.0
20260905203949 38 275 3.2 12.9 0.00 0.03 0.00 44 987.0
20260905203848 38 217 3.2 12.9 0.00 0.03 0.00 44 987.0
20260905203742 38 290 3.2 12.9 0.00 0.03 0.00 44 987.2
20260905203642 38 331 3.2 11.3 0.00 0.03 0.00 45 987.2
20260905203543 38 313 3.2 11.3 0.00 0.03 0.00 46 987.2
20260905203441 38 345 3.2 11.3 0.00 0.03 0.00 46 987.2
20260905203341 38 323 3.2 11.3 0.00 0.03 0.00 45 987.2
20260905203233 38 219 4.8 11.3 0.00 0.03 0.00 44 987.2
20260905203134 38 36 4.8 11.3 0.00 0.03 0.00 45 987.2
20260905203033 38 355 4.8 11.3 0.00 0.03 0.00 46 987.2
20260905202935 38 267 4.8 11.3 0.00 0.03 0.00 45 987.2
20260905202832 37 329 6.4 11.3 0.00 0.03 0.00 44 987.1
20260905202728 37 318 6.4 11.3 0.00 0.03 0.00 45 987.2
20260905202628 37 291 6.4 11.3 0.00 0.03 0.00 45 987.3
20260905202554 37 275 8.0 14.5 0.00 0.03 0.00 46 987.2
20260905202545 37 291 6.4 14.5 0.00 0.03 0.00 45 987.2
20260905202325 37 236 8.0 14.5 0.00 0.03 0.00 45 987.2
20260905202218 37 243 8.0 19.3 0.00 0.03 0.00 44 987.2
20260905202118 37 227 8.0 19.3 0.00 0.03 0.00 44 987.3
20260905202016 37 262 8.0 19.3 0.00 0.03 0.00 45 987.3
20260905201916 37 252 8.0 19.3 0.00 0.03 0.00 44 987.3
20260905201816 37 277 8.0 19.3 0.00 0.03 0.00 45 987.4
20260905201707 37 355 8.0 19.3 0.00 0.03 0.00 45 987.3
20260905201605 38 284 8.0 19.3 0.00 0.03 0.00 45 987.4
20260905201503 38 275 8.0 19.3 0.00 0.03 0.00 45 987.4
20260905201404 37 287 8.0 19.3 0.00 0.03 0.00 44 987.4
20260905201302 38 292 8.0 19.3 0.00 0.03 0.00 45 987.4
20260905201200 37 288 8.0 19.3 0.00 0.03 0.00 45 987.4
20260905201059 37 248 8.0 19.3 0.00 0.03 0.00 46 987.4
20260905200958 37 163 9.7 19.3 0.00 0.03 0.00 47 987.3
20260905200925 37 321 8.0 19.3 0.00 0.03 0.00 46 987.4
20260905200916 37 319 8.0 19.3 0.00 0.03 0.00 46 987.5
20260905200653 37 269 9.7 19.3 0.00 0.03 0.00 46 987.4
20260905200554 37 315 9.7 19.3 0.00 0.03 0.00 47 987.4
20260905200455 37 285 9.7 19.3 0.00 0.03 0.00 46 987.4
20260905200352 37 306 8.0 19.3 0.00 0.03 0.00 46 987.4
20260905200251 37 287 6.4 19.3 0.00 0.03 0.00 47 987.4
20260905200139 37 269 6.4 17.7 0.00 0.03 0.00 47 987.5
20260905200052 37 10 4.8 12.9 0.00 0.03 0.00 46 987.6
20260905200042 37 0 6.4 14.5 0.00 0.03 0.00 46 987.5
20260905200036 37 320 4.8 12.9 0.00 0.03 0.00 48 987.7
20260905200019 37 44 6.4 12.9 0.00 0.03 0.00 46 987.6
20260905195633 37 306 4.8 12.9 0.00 0.03 0.00 46 987.7
20260905195533 37 328 4.8 12.9 0.00 0.03 0.00 47 987.7
20260905195434 37 319 4.8 19.3 0.00 0.03 0.00 46 987.7
20260905195334 37 243 4.8 19.3 0.00 0.03 0.00 47 987.7
20260905195233 37 295 6.4 19.3 0.00 0.03 0.00 47 987.7
20260905195159 37 55 4.8 19.3 0.00 0.03 0.00 46 987.7
20260905195151 37 331 6.4 19.3 0.00 0.03 0.00 47 987.7
20260905194929 37 345 4.8 19.3 0.00 0.03 0.00 46 987.8
20260905194830 37 0 4.8 19.3 0.00 0.03 0.00 46 987.9
20260905194728 37 331 4.8 19.3 0.00 0.03 0.00 46 987.9
20260905194617 37 335 4.8 19.3 0.00 0.03 0.00 45 987.8
20260905194518 37 24 6.4 19.3 0.00 0.03 0.00 46 987.8
20260905194417 37 46 6.4 19.3 0.00 0.03 0.00 46 987.9
20260905194344 37 257 6.4 19.3 0.00 0.03 0.00 47 987.8
20260905194334 37 275 6.4 19.3 0.00 0.03 0.00 46 987.8
20260905194111 37 344 6.4 19.3 0.00 0.03 0.00 47 987.9
20260905194043 37 338 8.0 19.3 0.00 0.03 0.00 47 987.9
20260905194033 37 317 8.0 19.3 0.00 0.03 0.00 48 987.8
20260905193810 37 317 9.7 19.3 0.00 0.03 0.00 47 987.9
20260905193707 37 270 9.7 19.3 0.00 0.03 0.00 49 987.8
20260905193608 37 323 9.7 19.3 0.00 0.03 0.00 47 987.9
20260905193506 37 304 11.3 19.3 0.00 0.03 0.00 48 987.9
20260905193433 37 301 11.3 20.9 0.00 0.03 0.00 48 987.8
20260905193421 37 279 11.3 20.9 0.00 0.03 0.00 48 987.9
20260905193201 37 299 11.3 20.9 0.00 0.03 0.00 47 988.0
20260905193053 37 241 9.7 20.9 0.00 0.03 0.00 47 988.0
20260905193021 37 300 9.7 20.9 0.00 0.03 0.00 46 988.0
20260905193013 37 243 9.7 20.9 0.00 0.03 0.00 46 988.0
20260905192750 37 213 9.7 20.9 0.00 0.03 0.00 45 988.0
20260905192651 37 236 8.0 20.9 0.00 0.03 0.00 45 988.0
20260905192546 37 246 8.0 20.9 0.00 0.03 0.00 45 988.1
20260905192445 37 254 8.0 20.9 0.00 0.03 0.00 46 988.1
20260905192345 37 275 6.4 14.5 0.00 0.03 0.00 47 988.2
20260905192246 37 23 8.0 14.5 0.00 0.03 0.00 48 988.2
20260905192145 37 0 8.0 14.5 0.00 0.03 0.00 46 988.2
20260905192111 37 217 9.7 16.1 0.00 0.03 0.00 46 988.3
20260905192101 37 315 8.0 14.5 0.00 0.03 0.00 48 988.3
20260905191840 37 283 8.0 16.1 0.00 0.03 0.00 46 988.3
20260905191739 37 313 8.0 16.1 0.00 0.03 0.00 46 988.3
20260905191639 37 261 8.0 16.1 0.00 0.03 0.00 45 988.4
20260905191542 37 275 8.0 16.1 0.00 0.03 0.00 45 988.4
20260905191531 37 246 8.0 16.1 0.00 0.03 0.00 46 988.4
20260905191525 37 270 6.4 16.1 0.00 0.03 0.00 46 988.5
20260905191509 37 288 8.0 16.1 0.00 0.03 0.00 46 988.4
20260905191133 37 253 6.4 16.1 0.00 0.03 0.00 46 988.5
20260905191030 37 299 6.4 16.1 0.00 0.03 0.00 47 988.4
20260905190929 37 331 4.8 14.5 0.00 0.03 0.00 46 988.4
20260905190829 37 333 6.4 11.3 0.00 0.03 0.00 47 988.4
20260905190731 37 225 6.4 12.9 0.00 0.03 0.00 48 988.4
20260905190657 37 259 8.0 14.5 0.00 0.03 0.00 48 988.5
20260905190647 37 230 6.4 14.5 0.00 0.03 0.00 48 988.4
20260905190427 37 313 8.0 14.5 0.00 0.03 0.00 48 988.4
20260905190327 37 270 8.0 14.5 0.00 0.03 0.00 48 988.5
20260905190228 37 15 8.0 16.1 0.00 0.03 0.00 50 988.4
20260905190126 37 28 8.0 16.1 0.00 0.03 0.00 48 988.5
20260905190030 37 319 8.0 16.1 0.00 0.03 0.00 48 988.5
20260905185929 37 336 8.0 16.1 0.00 0.03 0.00 48 988.4
20260905185923 37 300 8.0 16.1 0.00 0.03 0.00 48 988.5
20260905185918 37 307 8.0 16.1 0.00 0.03 0.00 47 988.4
20260905185901 37 270 8.0 16.1 0.00 0.03 0.00 47 988.5
20260905185524 37 310 6.4 16.1 0.00 0.03 0.00 49 988.4
20260905185421 37 299 6.4 16.1 0.00 0.03 0.00 48 988.5
20260905185346 37 294 4.8 14.5 0.00 0.03 0.00 48 988.6
20260905185336 37 262 4.8 16.1 0.00 0.03 0.00 48 988.4
20260905185114 37 290 4.8 14.5 0.00 0.03 0.00 48 988.5
20260905185016 37 344 4.8 14.5 0.00 0.03 0.00 49 988.5
20260905184942 37 26 4.8 14.5 0.00 0.03 0.00 49 988.6
20260905184934 37 15 4.8 14.5 0.00 0.03 0.00 49 988.5
20260905184712 37 5 4.8 14.5 0.00 0.03 0.00 48 988.6
20260905184640 37 17 4.8 14.5 0.00 0.03 0.00 50 988.5
20260905184631 37 299 4.8 14.5 0.00 0.03 0.00 51 988.6
20260905184409 36 306 6.4 14.5 0.00 0.03 0.00 50 988.6
20260905184348 37 324 8.0 14.5 0.00 0.03 0.00 50 988.7
20260905184342 37 317 8.0 14.5 0.00 0.03 0.00 50 988.7
20260905184332 36 31 6.4 14.5 0.00 0.03 0.00 50 988.5
20260905184313 37 92 6.4 14.5 0.00 0.03 0.00 48 988.6
20260905184145 37 49 8.0 14.5 0.00 0.03 0.00 48 988.6
20260905183807 37 294 6.4 14.5 0.00 0.03 0.00 51 988.8
20260905183705 37 265 6.4 14.5 0.00 0.03 0.00 51 988.7
20260905183606 37 291 6.4 14.5 0.00 0.03 0.00 51 988.7
20260905183505 37 63 8.0 14.5 0.00 0.03 0.00 49 988.7
20260905183406 37 282 6.4 14.5 0.00 0.03 0.00 49 988.8
20260905183306 37 275 6.4 14.5 0.00 0.03 0.00 51 988.8
20260905183205 36 289 6.4 14.5 0.00 0.03 0.00 50 988.8
20260905183101 36 282 4.8 14.5 0.00 0.03 0.00 49 988.9
20260905183000 36 286 4.8 14.5 0.00 0.03 0.00 48 988.9
20260905182901 36 256 4.8 14.5 0.00 0.03 0.00 48 988.9
20260905182800 36 314 4.8 14.5 0.00 0.03 0.00 49 989.0
20260905182657 36 301 4.8 14.5 0.00 0.03 0.00 50 989.0
20260905182554 36 347 4.8 12.9 0.00 0.03 0.00 49 988.9
20260905182451 36 112 4.8 12.9 0.00 0.03 0.00 52 988.9
20260905182421 36 276 4.8 11.3 0.00 0.03 0.00 52 988.9
20260905182412 36 57 4.8 12.9 0.00 0.03 0.00 51 989.0
20260905182151 36 192 4.8 12.9 0.00 0.03 0.00 51 988.9
20260905182048 36 184 4.8 12.9 0.00 0.03 0.00 50 988.9
20260905181945 36 227 4.8 12.9 0.00 0.03 0.00 51 988.9
20260905181846 36 257 4.8 12.9 0.00 0.03 0.00 51 988.9
20260905181745 36 163 4.8 12.9 0.00 0.03 0.00 50 989.0
20260905181704 36 78 6.4 14.5 0.00 0.03 0.00 50 989.0
20260905181655 36 78 6.4 12.9 0.00 0.03 0.00 50 989.0
20260905181508 36 34 6.4 14.5 0.00 0.03 0.00 52 989.1
20260905181456 36 17 6.4 14.5 0.00 0.03 0.00 51 989.2
20260905181234 36 14 6.4 14.5 0.00 0.03 0.00 51 989.1
20260905181131 36 87 6.4 14.5 0.00 0.03 0.00 50 989.1
20260905181057 36 63 6.4 14.5 0.00 0.03 0.00 51 989.1
20260905181048 36 71 6.4 14.5 0.00 0.03 0.00 51 989.1
20260905180829 35 47 6.4 14.5 0.00 0.03 0.00 51 989.1
20260905180729 35 41 6.4 14.5 0.00 0.03 0.00 53 989.1
20260905180626 35 37 6.4 14.5 0.00 0.03 0.00 53 989.2
20260905180525 35 81 4.8 14.5 0.00 0.03 0.00 53 989.1
20260905180424 35 92 4.8 14.5 0.00 0.03 0.00 51 989.2
20260905180322 35 28 4.8 12.9 0.00 0.03 0.00 51 989.1
20260905180221 35 38 4.8 11.3 0.00 0.03 0.00 52 989.2
20260905180143 35 104 4.8 11.3 0.00 0.03 0.00 54 989.2
20260905180131 35 109 3.2 11.3 0.00 0.03 0.00 53 989.2
20260905175939 35 123 4.8 12.9 0.00 0.03 0.00 54 989.2
20260905175928 35 123 4.8 12.9 0.00 0.03 0.00 53 989.3
20260905175709 35 132 4.8 12.9 0.00 0.03 0.00 54 989.2
20260905175609 35 121 4.8 16.1 0.00 0.03 0.00 54 989.2
20260905175509 35 89 6.4 16.1 0.00 0.03 0.00 55 989.2
20260905175407 35 90 6.4 17.7 0.00 0.03 0.00 54 989.2
20260905175402 35 355 8.0 17.7 0.00 0.03 0.00 54 989.4
20260905175357 35 32 8.0 17.7 0.00 0.03 0.00 55 989.3
20260905175350 35 355 8.0 17.7 0.00 0.03 0.00 53 989.3
20260905175336 35 90 6.4 17.7 0.00 0.03 0.00 55 989.3
20260905175320 35 54 6.4 17.7 0.00 0.03 0.00 55 989.3
20260905175035 35 19 8.0 17.7 0.00 0.03 0.00 55 989.4
20260905174657 35 5 8.0 17.7 0.00 0.03 0.00 54 989.3
20260905174625 35 316 6.4 14.5 0.00 0.03 0.00 55 989.3
20260905174620 35 0 6.4 14.5 0.00 0.03 0.00 53 989.4
20260905174614 35 186 6.4 14.5 0.00 0.03 0.00 53 989.4
20260905174603 35 9 6.4 17.7 0.00 0.03 0.00 54 989.3
20260905174546 35 334 6.4 14.5 0.00 0.03 0.00 53 989.4
20260905174049 35 103 6.4 17.7 0.00 0.03 0.00 53 989.3
20260905173941 35 142 6.4 17.7 0.00 0.03 0.00 53 989.3
20260905173920 35 263 6.4 17.7 0.00 0.03 0.00 56 989.4
20260905173906 35 93 8.0 17.7 0.00 0.03 0.00 57 989.3
20260905173742 35 350 8.0 17.7 0.00 0.03 0.00 57 989.4
20260905173735 35 260 6.4 17.7 0.00 0.03 0.00 58 989.4
20260905173716 35 247 8.0 17.7 0.00 0.03 0.00 55 989.3
20260905173339 35 331 6.4 17.7 0.00 0.03 0.00 56 989.4
20260905173239 35 12 6.4 17.7 0.00 0.03 0.00 56 989.5
20260905173138 35 295 6.4 17.7 0.00 0.03 0.00 57 989.4
20260905173037 35 288 4.8 16.1 0.00 0.03 0.00 57 989.4
20260905173030 35 344 3.2 6.4 0.00 0.03 0.00 58 989.6
20260905173026 35 303 3.2 12.9 0.00 0.03 0.00 59 989.4
20260905173021 35 262 3.2 6.4 0.00 0.03 0.00 58 989.4
20260905173008 35 262 4.8 12.9 0.00 0.03 0.00 57 989.4
20260905172952 35 264 4.8 12.9 0.00 0.03 0.00 58 989.4
20260905172706 35 252 3.2 6.4 0.00 0.03 0.00 57 989.5
20260905172359 34 320 3.2 8.0 0.00 0.03 0.00 57 989.5
20260905172350 35 13 3.2 8.0 0.00 0.03 0.00 57 989.5
20260905172129 34 318 3.2 8.0 0.00 0.03 0.00 58 989.5
20260905172028 34 317 3.2 9.7 0.00 0.03 0.00 57 989.6
20260905171929 34 0 4.8 12.9 0.00 0.03 0.00 58 989.6
20260905171825 34 29 4.8 12.9 0.00 0.03 0.00 59 989.7
20260905171723 34 257 4.8 14.5 0.00 0.03 0.00 60 989.6
20260905171656 34 309 4.8 14.5 0.00 0.03 0.00 59 989.6
20260905171646 34 82 4.8 14.5 0.00 0.03 0.00 59 989.7
20260905171423 34 80 6.4 14.5 0.00 0.03 0.00 60 989.7
20260905171323 34 21 6.4 14.5 0.00 0.03 0.00 60 989.7
20260905171224 34 102 6.4 14.5 0.00 0.03 0.00 60 989.7
20260905171120 33 102 6.4 14.5 0.00 0.03 0.00 60 989.7
20260905171021 33 73 6.4 14.5 0.00 0.03 0.00 60 989.7
20260905170951 33 38 4.8 14.5 0.00 0.03 0.00 61 989.7
20260905170941 33 92 4.8 14.5 0.00 0.03 0.00 61 989.7
20260905170721 33 71 4.8 12.9 0.00 0.03 0.00 60 989.7
20260905170619 33 25 4.8 12.9 0.00 0.03 0.00 60 989.8
20260905170518 33 25 6.4 12.9 0.00 0.03 0.00 60 989.8
20260905170416 33 355 6.4 12.9 0.00 0.03 0.00 63 989.7
20260905170318 33 86 4.8 12.9 0.00 0.03 0.00 62 989.6
20260905170216 33 117 4.8 12.9 0.00 0.03 0.00 61 989.9
20260905170116 33 94 4.8 12.9 0.00 0.03 0.00 63 989.7
20260905170017 33 68 4.8 12.9 0.00 0.03 0.00 64 989.8
20260905165916 33 26 4.8 12.9 0.00 0.03 0.00 63 989.8
20260905165816 33 107 4.8 12.9 0.00 0.03 0.00 63 989.9
20260905165746 33 34 6.4 12.9 0.00 0.03 0.00 62 989.9
20260905165736 33 107 6.4 12.9 0.00 0.03 0.00 62 989.8
20260905165512 33 80 4.8 11.3 0.00 0.03 0.00 62 989.9
20260905165408 33 96 6.4 11.3 0.00 0.03 0.00 63 989.9
20260905165309 33 132 6.4 11.3 0.00 0.03 0.00 66 989.8
20260905165210 33 182 6.4 11.3 0.00 0.03 0.00 64 989.9
20260905165110 33 283 6.4 12.9 0.00 0.03 0.00 64 989.9
20260905165004 33 271 6.4 12.9 0.00 0.03 0.00 64 989.9
20260905164903 33 288 6.4 12.9 0.00 0.03 0.00 64 990.0
20260905164803 32 278 6.4 12.9 0.00 0.03 0.00 64 990.0
20260905164702 32 292 6.4 12.9 0.00 0.03 0.00 65 990.0
20260905164603 32 268 6.4 12.9 0.00 0.03 0.00 65 990.0
20260905164500 32 293 6.4 12.9 0.00 0.03 0.00 64 990.0
20260905164432 32 305 6.4 12.9 0.00 0.03 0.00 67 990.1
20260905164422 32 309 4.8 12.9 0.00 0.03 0.00 67 990.2
20260905164200 32 263 6.4 12.9 0.00 0.03 0.00 65 990.2
20260905164100 32 250 6.4 12.9 0.00 0.03 0.00 66 990.2
20260905163958 32 279 6.4 12.9 0.00 0.03 0.00 66 990.2
20260905163859 32 244 6.4 12.9 0.00 0.03 0.00 66 990.2
20260905163759 32 342 6.4 12.9 0.00 0.03 0.00 65 990.2
20260905163700 32 348 6.4 12.9 0.00 0.03 0.00 65 990.3
20260905163554 32 348 6.4 12.9 0.00 0.03 0.00 67 990.3
20260905163454 32 286 6.4 12.9 0.00 0.03 0.00 67 990.3
20260905163353 32 300 4.8 12.9 0.00 0.03 0.00 66 990.3
20260905163251 32 306 4.8 12.9 0.00 0.03 0.00 66 990.3
20260905163151 32 305 4.8 12.9 0.00 0.03 0.00 66 990.3
20260905163052 32 288 4.8 11.3 0.00 0.03 0.00 68 990.4
20260905163046 32 312 4.8 11.3 0.00 0.03 0.00 68 990.4
20260905163040 32 299 4.8 11.3 0.00 0.03 0.00 68 990.3
20260905163026 32 274 4.8 11.3 0.00 0.03 0.00 68 990.3
20260905162649 31 298 4.8 11.3 0.00 0.03 0.00 68 990.4
20260905162549 31 298 4.8 11.3 0.00 0.03 0.00 69 990.3
20260905162448 31 279 4.8 11.3 0.00 0.03 0.00 69 990.4
20260905162348 31 32 4.8 11.3 0.00 0.03 0.00 69 990.4
20260905162248 31 32 4.8 11.3 0.00 0.03 0.00 68 990.4
20260905162148 31 277 4.8 11.3 0.00 0.03 0.00 71 990.4
20260905162050 31 271 4.8 11.3 0.00 0.03 0.00 71 990.3
20260905161948 31 277 4.8 11.3 0.00 0.03 0.00 71 990.4
20260905161846 31 277 4.8 12.9 0.00 0.03 0.00 70 990.4
20260905161747 31 277 4.8 12.9 0.00 0.03 0.00 70 990.3
20260905161646 31 300 4.8 12.9 0.00 0.03 0.00 70 990.4
20260905161548 31 271 4.8 12.9 0.00 0.03 0.00 69 990.4
20260905161448 31 308 4.8 12.9 0.00 0.03 0.00 69 990.4
20260905161418 31 324 4.8 12.9 0.00 0.03 0.00 70 990.5
20260905161409 31 324 4.8 12.9 0.00 0.03 0.00 69 990.5
20260905161215 31 309 4.8 8.0 0.00 0.03 0.00 74 990.7
20260905161210 31 298 4.8 9.7 0.00 0.03 0.00 73 990.6
20260905161201 31 316 4.8 12.9 0.00 0.03 0.00 70 990.5
20260905161139 31 322 4.8 12.9 0.00 0.03 0.00 70 990.6
20260905161016 31 355 4.8 12.9 0.00 0.03 0.00 72 990.6
20260905160643 30 258 3.2 8.0 0.00 0.03 0.00 73 990.7
20260905160540 30 306 3.2 8.0 0.00 0.03 0.00 74 990.7
20260905160440 30 331 3.2 6.4 0.00 0.03 0.00 73 990.7
20260905160340 30 319 4.8 6.4 0.00 0.03 0.00 73 990.9
20260905160309 30 311 3.2 6.4 0.00 0.03 0.00 73 990.8
20260905160301 30 311 4.8 6.4 0.00 0.03 0.00 74 990.8
20260905160039 30 311 3.2 6.4 0.00 0.03 0.00 73 990.7
20260905155939 30 311 3.2 6.4 0.00 0.03 0.00 73 990.8
20260905155839 30 311 3.2 6.4 0.00 0.03 0.00 73 990.8
20260905155749 30 300 3.2 8.0 0.00 0.03 0.00 72 990.9
20260905155739 30 311 3.2 6.4 0.00 0.03 0.00 72 990.8
20260905155732 30 300 3.2 8.0 0.00 0.03 0.00 72 990.9
20260905155717 30 296 3.2 6.4 0.00 0.03 0.00 73 990.9
20260905155340 30 290 3.2 8.0 0.00 0.03 0.00 72 990.8
20260905155237 30 286 3.2 8.0 0.00 0.03 0.00 74 990.9
20260905155204 30 329 3.2 8.0 0.00 0.03 0.00 74 991.0
20260905155155 30 355 3.2 8.0 0.00 0.03 0.00 75 990.8
20260905154934 30 22 3.2 8.0 0.00 0.03 0.00 75 990.9
20260905154835 30 22 3.2 8.0 0.00 0.03 0.00 76 990.9
20260905154734 30 22 3.2 8.0 0.00 0.03 0.00 75 990.9
20260905154633 30 22 3.2 8.0 0.00 0.03 0.00 75 990.8
20260905154534 30 355 3.2 6.4 0.00 0.03 0.00 76 990.8
20260905154501 30 21 3.2 6.4 0.00 0.03 0.00 78 990.8
20260905154451 30 338 3.2 6.4 0.00 0.03 0.00 78 990.8
20260905154235 30 21 1.6 6.4 0.00 0.03 0.00 77 990.8
20260905154131 29 21 1.6 6.4 0.00 0.03 0.00 76 990.8
20260905154031 29 21 1.6 6.4 0.00 0.03 0.00 76 990.8
20260905153931 29 21 1.6 6.4 0.00 0.03 0.00 76 990.8
20260905153832 29 5 1.6 6.4 0.00 0.03 0.00 77 990.8
20260905153731 29 5 1.6 6.4 0.00 0.03 0.00 78 990.9
20260905153630 29 344 0.0 6.4 0.00 0.03 0.00 77 990.8
20260905153532 29 344 0.0 6.4 0.00 0.03 0.00 77 990.8
20260905153430 29 344 0.0 6.4 0.00 0.03 0.00 77 990.8
20260905153332 29 50 0.0 3.2 0.00 0.03 0.00 77 990.7
20260905153232 29 50 1.6 4.8 0.00 0.03 0.00 77 990.8
20260905153200 29 338 1.6 6.4 0.00 0.03 0.00 79 990.7
20260905153150 29 338 1.6 6.4 0.00 0.03 0.00 78 990.7
20260905152930 29 338 1.6 6.4 0.00 0.03 0.00 78 990.7
20260905152833 29 338 1.6 6.4 0.00 0.03 0.00 77 990.7
20260905152731 28 338 1.6 6.4 0.00 0.03 0.00 77 990.7
20260905152630 28 338 1.6 6.4 0.00 0.03 0.00 77 990.7
20260905152527 28 338 1.6 6.4 0.00 0.03 0.00 77 990.7
20260905152427 28 338 1.6 6.4 0.00 0.03 0.00 78 990.8
20260905152326 28 338 1.6 6.4 0.00 0.03 0.00 78 990.8
20260905152222 28 338 1.6 6.4 0.00 0.03 0.00 79 990.8
20260905152123 28 338 1.6 6.4 0.00 0.03 0.00 79 990.8
20260905152021 28 338 1.6 6.4 0.00 0.03 0.00 79 990.8
20260905151916 28 338 1.6 6.4 0.00 0.03 0.00 79 990.8
20260905151816 28 338 1.6 6.4 0.00 0.03 0.00 79 990.7
20260905151717 28 338 1.6 6.4 0.00 0.03 0.00 79 990.7
20260905151618 28 338 1.6 6.4 0.00 0.03 0.00 79 990.8
20260905151515 28 338 1.6 6.4 0.00 0.03 0.00 79 990.8
20260905151412 28 338 0.0 6.4 0.00 0.03 0.00 79 990.9
20260905151308 28 338 0.0 4.8 0.00 0.03 0.00 80 990.8
20260905151208 28 338 0.0 0.0 0.00 0.03 0.00 80 990.8
20260905151107 28 338 0.0 0.0 0.00 0.03 0.00 80 990.8
20260905151029 28 338 0.0 0.0 0.00 0.03 0.00 81 990.9
20260905151021 28 338 0.0 0.0 0.00 0.03 0.00 80 990.8
20260905150803 28 338 0.0 0.0 0.00 0.03 0.00 81 990.8
20260905150704 28 338 0.0 0.0 0.00 0.03 0.00 80 990.8
20260905150604 28 338 0.0 0.0 0.00 0.03 0.00 81 990.9
20260905150500 28 338 0.0 0.0 0.00 0.03 0.00 81 990.8
20260905150355 28 338 0.0 0.0 0.00 0.03 0.00 81 990.8
20260905150254 27 338 0.0 0.0 0.00 0.03 0.00 81 990.8
20260905150154 27 339 0.0 0.0 0.00 0.03 0.00 80 990.8
20260905150054 27 338 0.0 0.0 0.00 0.03 0.00 80 990.9
20260905150017 27 338 0.0 0.0 0.00 0.03 0.00 81 990.8
20260905150009 27 338 0.0 0.0 0.00 0.03 0.00 82 990.9
20260905145748 27 338 0.0 0.0 0.00 0.03 0.00 81 990.9
20260905145716 27 338 0.0 0.0 0.00 0.03 0.00 82 990.9
20260905145706 27 338 0.0 0.0 0.00 0.03 0.00 81 990.9
20260905145448 27 311 0.0 0.0 0.00 0.03 0.00 82 990.9
20260905145422 27 255 0.0 0.0 0.00 0.03 0.00 82 990.9
20260905145412 27 311 0.0 0.0 0.00 0.03 0.00 82 990.9
20260905145144 27 255 0.0 0.0 0.00 0.03 0.00 83 990.9
20260905145044 27 255 0.0 0.0 0.00 0.03 0.00 83 990.9
20260905144945 27 255 0.0 0.0 0.00 0.03 0.00 83 990.9
20260905144914 27 255 0.0 0.0 0.00 0.03 0.00 83 990.9
20260905144905 27 255 0.0 0.0 0.00 0.03 0.00 83 990.9
20260905144644 27 255 0.0 0.0 0.00 0.03 0.00 83 990.9
20260905144545 27 255 0.0 0.0 0.00 0.03 0.00 83 990.9
20260905144446 27 255 0.0 0.0 0.00 0.03 0.00 83 990.9
20260905144344 27 255 0.0 0.0 0.00 0.03 0.00 84 991.0
20260905144316 27 255 0.0 0.0 0.00 0.03 0.00 83 990.9
20260905144307 27 255 0.0 0.0 0.00 0.03 0.00 83 990.9
20260905144045 27 255 0.0 0.0 0.00 0.03 0.00 84 990.9
20260905143945 27 255 0.0 0.0 0.00 0.03 0.00 84 990.9
20260905143844 27 255 0.0 0.0 0.00 0.03 0.00 84 990.9
20260905143745 27 255 0.0 0.0 0.00 0.03 0.00 84 990.9
20260905143711 27 255 0.0 0.0 0.00 0.03 0.00 84 991.0
20260905143704 27 255 0.0 0.0 0.00 0.03 0.00 84 990.9
20260905143444 27 255 0.0 0.0 0.00 0.03 0.00 84 990.8
20260905143345 27 177 0.0 0.0 0.00 0.03 0.00 85 990.8
20260905143241 27 177 0.0 0.0 0.00 0.03 0.00 85 990.9
20260905143140 26 177 0.0 0.0 0.00 0.03 0.00 85 990.8
20260905143110 26 177 0.0 0.0 0.00 0.03 0.00 85 990.8
20260905143100 26 177 0.0 0.0 0.00 0.03 0.00 85 990.8
20260905142907 26 177 0.0 0.0 0.00 0.03 0.00 86 990.8
20260905142858 26 177 0.0 0.0 0.00 0.03 0.00 86 990.8
20260905142641 26 177 0.0 4.8 0.00 0.03 0.00 86 990.8
20260905142537 26 177 0.0 4.8 0.00 0.03 0.00 86 990.8
20260905142439 26 177 0.0 4.8 0.00 0.03 0.00 86 990.7
20260905142338 26 5 0.0 4.8 0.00 0.03 0.00 86 990.7
20260905142236 26 5 0.0 4.8 0.00 0.03 0.00 86 990.8
20260905142137 26 5 0.0 4.8 0.00 0.03 0.00 86 990.7
20260905142037 26 5 0.0 4.8 0.00 0.03 0.00 86 990.7
20260905141936 26 5 0.0 4.8 0.00 0.03 0.00 87 990.7
20260905141836 26 5 0.0 4.8 0.00 0.03 0.00 87 990.7
20260905141736 26 5 0.0 4.8 0.00 0.03 0.00 88 990.8
20260905141636 26 5 0.0 4.8 0.00 0.03 0.00 88 990.8
20260905141536 26 5 0.0 4.8 0.00 0.03 0.00 88 990.9
20260905141436 26 5 0.0 4.8 0.00 0.03 0.00 89 990.8
20260905141337 25 5 0.0 4.8 0.00 0.03 0.00 90 990.8
20260905141237 25 5 0.0 4.8 0.00 0.03 0.00 90 990.8
20260905141137 25 5 1.6 4.8 0.00 0.03 0.00 90 990.9
20260905141036 25 5 1.6 4.8 0.00 0.03 0.00 90 990.9
20260905141005 25 5 1.6 4.8 0.00 0.03 0.00 91 990.9
20260905140956 25 5 1.6 4.8 0.00 0.03 0.00 91 990.9
20260905140736 25 5 1.6 4.8 0.00 0.03 0.00 91 991.0
20260905140636 25 5 1.6 4.8 0.00 0.03 0.00 91 991.1
20260905140536 25 5 1.6 4.8 0.00 0.03 0.00 92 990.9
20260905140439 25 5 1.6 4.8 0.00 0.03 0.00 92 991.0
20260905140337 25 5 1.6 4.8 0.00 0.03 0.00 92 991.0
20260905140236 25 5 1.6 4.8 0.00 0.03 0.00 92 991.0
20260905140136 25 5 1.6 4.8 0.00 0.03 0.00 92 991.0
20260905140037 25 5 0.0 4.8 0.00 0.03 0.00 92 991.1
20260905135933 25 225 0.0 3.2 0.00 0.03 0.00 92 991.1
20260905135833 25 225 0.0 3.2 0.00 0.03 0.00 93 991.0
20260905135734 25 225 0.0 3.2 0.00 0.03 0.00 93 991.0
20260905135634 25 225 0.0 3.2 0.00 0.03 0.00 93 991.1
20260905135532 25 225 0.0 3.2 0.00 0.03 0.00 93 991.1
20260905135525 24 225 1.6 3.2 0.00 0.03 0.00 94 991.1
20260905135521 24 225 1.6 3.2 0.00 0.03 0.00 94 991.0
20260905135505 25 225 1.6 3.2 0.00 0.03 0.00 93 991.0
20260905135127 24 201 1.6 3.2 0.00 0.03 0.00 94 991.0
20260905135028 24 201 1.6 3.2 0.00 0.03 0.00 93 991.1
20260905134928 24 201 1.6 3.2 0.00 0.03 0.00 93 991.0
20260905134857 24 201 1.6 3.2 0.00 0.03 0.00 94 991.0
20260905134848 24 201 1.6 3.2 0.00 0.03 0.00 94 991.0
20260905134630 24 201 0.0 3.2 0.00 0.03 0.00 94 991.0
20260905134557 24 201 0.0 1.6 0.00 0.03 0.00 94 991.0
20260905134548 24 201 0.0 3.2 0.00 0.03 0.00 94 991.0
20260905134330 24 201 0.0 1.6 0.00 0.03 0.00 94 990.9
20260905134231 24 201 0.0 1.6 0.00 0.03 0.00 94 990.9
20260905134130 23 201 0.0 1.6 0.00 0.03 0.00 94 991.0
20260905134028 23 201 0.0 1.6 0.00 0.03 0.00 94 991.0
20260905133929 23 201 0.0 1.6 0.00 0.03 0.00 94 990.9
20260905133831 23 201 0.0 1.6 0.00 0.03 0.00 94 991.0
20260905133728 23 201 0.0 1.6 0.00 0.03 0.00 94 991.1
20260905133628 23 201 0.0 1.6 0.00 0.03 0.00 94 991.0
20260905133529 23 201 0.0 1.6 0.00 0.03 0.00 94 991.1
20260905133428 23 201 0.0 1.6 0.00 0.03 0.00 94 991.2
20260905133329 23 201 0.0 1.6 0.00 0.03 0.00 94 991.1
20260905133257 23 201 0.0 1.6 0.00 0.03 0.00 94 991.1
20260905133249 23 201 0.0 1.6 0.00 0.03 0.00 94 991.1
20260905133057 23 201 0.0 1.6 0.00 0.03 0.00 94 991.2
20260905133048 23 201 0.0 1.6 0.00 0.03 0.00 94 991.2
20260905132828 23 201 0.0 3.2 0.00 0.03 0.00 94 991.2
20260905132730 23 201 0.0 3.2 0.00 0.03 0.00 94 991.2
20260905132620 23 201 0.0 3.2 0.00 0.03 0.00 94 991.3
20260905132519 23 201 0.0 3.2 0.00 0.03 0.00 93 991.2
20260905132418 23 201 0.0 3.2 0.00 0.03 0.00 93 991.3
20260905132319 23 201 0.0 3.2 0.00 0.03 0.00 93 991.4
20260905132219 23 201 0.0 3.2 0.00 0.03 0.00 94 991.3
20260905132117 23 201 0.0 3.2 0.00 0.03 0.00 94 991.3
20260905132016 23 201 0.0 3.2 0.00 0.03 0.00 94 991.3
20260905131913 23 201 0.0 3.2 0.00 0.03 0.00 94 991.3
20260905131840 23 201 0.0 1.6 0.00 0.03 0.00 94 991.4
20260905131830 23 201 0.0 1.6 0.00 0.03 0.00 94 991.4
20260905131609 23 201 0.0 1.6 0.00 0.03 0.00 94 991.4
20260905131507 23 201 0.0 1.6 0.00 0.03 0.00 94 991.4
20260905131409 23 201 0.0 1.6 0.00 0.03 0.00 94 991.5
20260905131305 23 201 0.0 1.6 0.00 0.03 0.00 94 991.5
20260905131204 23 201 0.0 1.6 0.00 0.03 0.00 94 991.5
20260905131135 22 201 0.0 4.8 0.00 0.03 0.00 94 991.5
20260905131125 23 201 0.0 1.6 0.00 0.03 0.00 94 991.5
20260905131105 23 201 0.0 4.8 0.00 0.03 0.00 94 991.5
20260905130954 22 201 0.0 4.8 0.00 0.03 0.00 94 991.4
20260905130938 23 201 0.0 4.8 0.00 0.03 0.00 94 991.5
20260905130601 22 201 0.0 4.8 0.00 0.03 0.00 94 991.4
20260905130501 22 201 0.0 4.8 0.00 0.03 0.00 94 991.4
20260905130359 22 201 0.0 4.8 0.00 0.03 0.00 94 991.4
20260905130256 22 201 1.6 4.8 0.00 0.03 0.00 94 991.4
20260905130156 22 201 1.6 4.8 0.00 0.03 0.00 94 991.3
20260905130055 22 201 1.6 4.8 0.00 0.03 0.00 94 991.4
20260905125952 22 201 1.6 4.8 0.00 0.03 0.00 94 991.3
20260905125852 22 201 3.2 4.8 0.00 0.03 0.00 94 991.4
20260905125752 22 201 3.2 4.8 0.00 0.03 0.00 93 991.4
20260905125650 22 201 3.2 4.8 0.00 0.03 0.00 93 991.4
20260905125551 22 201 1.6 4.8 0.00 0.03 0.00 93 991.5
20260905125450 22 201 1.6 4.8 0.00 0.03 0.00 94 991.4
20260905125347 22 201 1.6 4.8 0.00 0.03 0.00 94 991.4
20260905125244 22 201 1.6 4.8 0.00 0.03 0.00 94 991.4
20260905125144 22 201 1.6 4.8 0.00 0.03 0.00 94 991.4
20260905125043 22 201 1.6 4.8 0.00 0.03 0.00 94 991.5
20260905124944 22 201 0.0 4.8 0.00 0.03 0.00 94 991.5
20260905124841 22 201 0.0 4.8 0.00 0.03 0.00 94 991.4
20260905124737 22 201 0.0 0.0 0.00 0.03 0.00 94 991.5
20260905124639 22 201 0.0 0.0 0.00 0.03 0.00 94 991.5
20260905124540 22 201 0.0 0.0 0.00 0.03 0.00 93 991.5
20260905124439 22 201 0.0 0.0 0.00 0.03 0.00 93 991.5
20260905124338 22 201 0.0 0.0 0.00 0.03 0.00 93 991.5
20260905124237 22 201 0.0 0.0 0.00 0.03 0.00 93 991.4
20260905124203 22 201 0.0 0.0 0.00 0.03 0.00 93 991.4
20260905124154 22 201 0.0 0.0 0.00 0.03 0.00 93 991.5
20260905123936 22 201 0.0 0.0 0.00 0.03 0.00 93 991.5
20260905123834 22 201 0.0 0.0 0.00 0.03 0.00 93 991.4
20260905123735 22 201 0.0 0.0 0.00 0.03 0.00 93 991.4
20260905123702 22 201 0.0 0.0 0.00 0.03 0.00 93 991.4
20260905123652 22 201 0.0 0.0 0.00 0.03 0.00 93 991.4
20260905123431 22 201 0.0 0.0 0.00 0.03 0.00 93 991.3
20260905123400 22 201 0.0 0.0 0.00 0.03 0.00 93 991.3
20260905123351 22 201 0.0 0.0 0.00 0.03 0.00 93 991.4
20260905123133 22 201 0.0 0.0 0.00 0.03 0.00 93 991.3
20260905123030 21 201 0.0 0.0 0.00 0.03 0.00 93 991.3
20260905122931 21 201 0.0 0.0 0.00 0.03 0.00 93 991.2
20260905122827 21 201 0.0 0.0 0.00 0.03 0.00 93 991.3
20260905122727 21 201 0.0 0.0 0.00 0.03 0.00 93 991.2
20260905122626 21 201 0.0 0.0 0.00 0.03 0.00 93 991.3
20260905122525 21 201 0.0 0.0 0.00 0.03 0.00 93 991.3
20260905122450 21 201 0.0 0.0 0.00 0.03 0.00 93 991.2
20260905122441 21 201 0.0 0.0 0.00 0.03 0.00 93 991.2
20260905122222 21 201 0.0 0.0 0.00 0.03 0.00 93 991.2
20260905122120 21 201 0.0 0.0 0.00 0.03 0.00 93 991.2
20260905122021 21 201 0.0 0.0 0.00 0.03 0.00 93 991.1
20260905121917 21 201 0.0 0.0 0.00 0.03 0.00 93 991.2
20260905121818 21 201 0.0 0.0 0.00 0.03 0.00 93 991.2
20260905121719 21 201 0.0 0.0 0.00 0.03 0.00 93 991.0
20260905121615 21 201 0.0 0.0 0.00 0.03 0.00 93 991.1
20260905121516 21 201 0.0 0.0 0.00 0.03 0.00 93 991.1
20260905121417 21 201 0.0 0.0 0.00 0.03 0.00 93 991.0
20260905121314 21 201 0.0 0.0 0.00 0.03 0.00 93 991.1
20260905121243 21 201 0.0 0.0 0.00 0.03 0.00 93 991.1
20260905121232 21 201 0.0 0.0 0.00 0.03 0.00 93 991.1
20260905121040 21 201 0.0 0.0 0.00 0.03 0.00 93 991.1
20260905121030 21 201 0.0 0.0 0.00 0.03 0.00 93 991.1
20260905120808 21 201 0.0 0.0 0.00 0.03 0.00 93 991.1
20260905120709 21 201 0.0 0.0 0.00 0.03 0.00 93 991.1
20260905120607 21 201 0.0 0.0 0.00 0.03 0.00 93 991.0
20260905120508 21 201 0.0 0.0 0.00 0.03 0.00 93 991.0
20260905120405 21 201 0.0 0.0 0.00 0.03 0.00 93 991.0
20260905120304 21 201 0.0 0.0 0.00 0.03 0.00 93 990.9
20260905120202 21 201 0.0 0.0 0.00 0.03 0.00 93 991.0
20260905115959 21 201 0.0 0.0 0.00 0.03 0.00 93 990.8
20260905115900 21 201 0.0 0.0 0.00 0.03 0.00 93 990.9
20260905115756 21 201 0.0 0.0 0.00 0.03 0.00 93 990.9
20260905115658 21 201 0.0 0.0 0.00 0.03 0.00 93 991.0
20260905115554 21 201 0.0 0.0 0.00 0.03 0.00 93 990.9
20260905115453 21 201 0.0 0.0 0.00 0.03 0.00 93 990.9
20260905115417 21 201 0.0 0.0 0.00 0.03 0.00 93 990.9
20260905115408 21 201 0.0 0.0 0.00 0.03 0.00 93 991.0
20260905115147 21 201 0.0 0.0 0.00 0.03 0.00 93 991.0
20260905115046 21 201 0.0 0.0 0.00 0.03 0.00 93 991.0
20260905114947 21 201 0.0 0.0 0.00 0.03 0.00 93 991.0
20260905114839 21 201 0.0 0.0 0.00 0.03 0.00 93 990.9
20260905114740 21 201 0.0 0.0 0.00 0.03 0.00 93 990.9
20260905114640 21 201 0.0 0.0 0.00 0.03 0.00 93 990.8
20260905114539 21 201 0.0 0.0 0.00 0.03 0.00 93 990.8
20260905114440 21 201 0.0 0.0 0.00 0.03 0.00 93 990.9
20260905114339 21 201 0.0 0.0 0.00 0.03 0.00 93 990.8
20260905114234 21 201 0.0 0.0 0.00 0.03 0.00 93 990.8
20260905114200 21 201 0.0 1.6 0.00 0.03 0.00 93 990.8
20260905114150 21 201 0.0 1.6 0.00 0.03 0.00 93 990.8
20260905113931 21 201 0.0 1.6 0.00 0.03 0.00 93 990.7
20260905113831 21 201 0.0 1.6 0.00 0.03 0.00 93 990.7
20260905113733 21 201 0.0 3.2 0.00 0.03 0.00 93 990.7
20260905113631 21 201 1.6 4.8 0.00 0.03 0.00 93 990.7
20260905113531 21 201 1.6 4.8 0.00 0.03 0.00 93 990.7
20260905113431 21 201 1.6 4.8 0.00 0.03 0.00 93 990.6
20260905113331 21 201 1.6 4.8 0.00 0.03 0.00 93 990.6
20260905113231 21 201 1.6 4.8 0.00 0.03 0.00 93 990.7
20260905113225 21 201 3.2 4.8 0.00 0.03 0.00 93 990.5
20260905113219 21 201 3.2 4.8 0.00 0.03 0.00 93 990.6
20260905113203 21 201 3.2 4.8 0.00 0.03 0.00 93 990.6
20260905112827 21 201 3.2 4.8 0.00 0.03 0.00 93 990.5
20260905112725 21 201 3.2 4.8 0.00 0.03 0.00 93 990.5
20260905112625 21 201 3.2 4.8 0.00 0.03 0.00 93 990.4
20260905112552 21 201 3.2 4.8 0.00 0.03 0.00 93 990.5
20260905112546 21 201 3.2 4.8 0.00 0.03 0.00 93 990.5
20260905112325 21 201 3.2 4.8 0.00 0.03 0.00 93 990.4
20260905112223 21 201 1.6 4.8 0.00 0.03 0.00 93 990.4
20260905112122 21 201 1.6 4.8 0.00 0.03 0.00 93 990.5
20260905112021 21 201 1.6 4.8 0.00 0.03 0.00 93 990.5
20260905111921 21 201 1.6 4.8 0.00 0.03 0.00 93 990.5
20260905111820 21 201 1.6 4.8 0.00 0.03 0.00 92 990.4
20260905111720 21 201 1.6 4.8 0.00 0.03 0.00 92 990.4
20260905111620 21 201 1.6 4.8 0.00 0.03 0.00 92 990.4
20260905111547 21 201 1.6 3.2 0.00 0.03 0.00 92 990.5
20260905111538 21 201 1.6 4.8 0.00 0.03 0.00 92 990.5
20260905111346 21 201 0.0 3.2 0.00 0.03 0.00 93 990.5
20260905111337 21 201 1.6 3.2 0.00 0.03 0.00 93 990.4
20260905111118 21 201 0.0 3.2 0.00 0.03 0.00 93 990.5
20260905111018 21 201 0.0 1.6 0.00 0.03 0.00 93 990.5
20260905110917 21 201 0.0 1.6 0.00 0.03 0.00 93 990.4
20260905110814 21 201 0.0 1.6 0.00 0.03 0.00 93 990.4
20260905110714 21 201 0.0 1.6 0.00 0.03 0.00 93 990.3
20260905110612 21 201 0.0 1.6 0.00 0.03 0.00 93 990.4
20260905110538 21 201 0.0 1.6 0.00 0.03 0.00 93 990.4
20260905110530 21 201 0.0 1.6 0.00 0.03 0.00 93 990.4
20260905110309 21 201 0.0 3.2 0.00 0.03 0.00 92 990.4
20260905110208 21 201 0.0 3.2 0.00 0.03 0.00 92 990.3
20260905110107 21 201 0.0 3.2 0.00 0.03 0.00 93 990.3
20260905110004 21 201 0.0 3.2 0.00 0.03 0.00 93 990.2
20260905105905 21 201 0.0 3.2 0.00 0.03 0.00 93 990.2
20260905105801 21 201 0.0 3.2 0.00 0.03 0.00 93 990.2
20260905105703 21 201 0.0 3.2 0.00 0.03 0.00 93 990.2
20260905105600 21 201 1.6 3.2 0.00 0.03 0.00 93 990.2
20260905105531 21 201 1.6 3.2 0.00 0.03 0.00 93 990.2
20260905105521 21 201 1.6 3.2 0.00 0.03 0.00 93 990.2
20260905105256 21 201 1.6 3.2 0.00 0.03 0.00 93 990.2
20260905105157 21 201 1.6 3.2 0.00 0.03 0.00 93 990.2
20260905105120 21 201 1.6 4.8 0.00 0.03 0.00 93 990.2
20260905105111 21 201 1.6 3.2 0.00 0.03 0.00 93 990.2
20260905104845 21 201 1.6 4.8 0.00 0.03 0.00 93 990.2
20260905104745 21 201 1.6 4.8 0.00 0.03 0.00 93 990.2
20260905104648 21 201 1.6 4.8 0.00 0.03 0.00 93 990.0
20260905104547 21 201 1.6 4.8 0.00 0.03 0.00 93 990.1
20260905104509 21 201 1.6 6.4 0.00 0.03 0.00 93 990.1
20260905104501 21 201 1.6 4.8 0.00 0.03 0.00 93 990.1
20260905104239 21 201 1.6 6.4 0.00 0.03 0.00 93 990.1
20260905104141 21 201 0.0 6.4 0.00 0.03 0.00 93 990.2
20260905104038 21 201 0.0 6.4 0.00 0.03 0.00 93 990.1
20260905104007 21 201 0.0 6.4 0.00 0.03 0.00 93 989.9
20260905103958 21 201 0.0 6.4 0.00 0.03 0.00 93 989.9
20260905103802 21 201 1.6 6.4 0.00 0.03 0.00 93 990.0
20260905103753 21 201 0.0 6.4 0.00 0.03 0.00 93 990.0
20260905103559 21 201 1.6 6.4 0.00 0.03 0.00 93 990.0
20260905103554 21 201 1.6 6.4 0.00 0.03 0.00 93 990.0
20260905103546 21 201 1.6 6.4 0.00 0.03 0.00 93 989.9
20260905103526 21 201 1.6 6.4 0.00 0.03 0.00 93 989.9
20260905103403 21 201 1.6 6.4 0.00 0.03 0.00 92 990.0
20260905103051 21 201 1.6 6.4 0.00 0.03 0.00 92 990.0
20260905103044 21 201 1.6 6.4 0.00 0.03 0.00 93 990.0
20260905102820 21 201 3.2 6.4 0.00 0.03 0.00 92 990.0
20260905102720 21 201 3.2 6.4 0.00 0.03 0.00 92 990.1
20260905102620 21 201 3.2 6.4 0.00 0.03 0.00 92 990.0
20260905102518 21 201 3.2 6.4 0.00 0.03 0.00 92 990.0
20260905102418 21 201 3.2 6.4 0.00 0.03 0.00 92 990.0
20260905102312 21 201 3.2 4.8 0.00 0.03 0.00 92 990.0
20260905102209 21 201 1.6 4.8 0.00 0.03 0.00 92 990.1
20260905102204 21 201 1.6 4.8 0.00 0.03 0.00 92 990.0
20260905102159 21 201 1.6 4.8 0.00 0.03 0.00 92 990.0
20260905102142 21 201 1.6 4.8 0.00 0.03 0.00 92 990.0
20260905101800 21 201 1.6 4.8 0.00 0.03 0.00 92 990.0
20260905101659 21 201 1.6 4.8 0.00 0.03 0.00 92 989.9
20260905101557 21 201 0.0 4.8 0.00 0.03 0.00 92 990.0
20260905101457 21 201 0.0 3.2 0.00 0.03 0.00 92 990.1
20260905101358 21 201 0.0 3.2 0.00 0.03 0.00 92 990.0
20260905101258 21 201 0.0 0.0 0.00 0.03 0.00 92 990.1
20260905101227 21 201 0.0 1.6 0.00 0.03 0.00 92 990.0
20260905101218 21 201 0.0 1.6 0.00 0.03 0.00 92 990.0
20260905100954 21 201 0.0 1.6 0.00 0.03 0.00 92 989.9
20260905100852 21 201 0.0 1.6 0.00 0.03 0.00 92 990.0
20260905100745 21 201 0.0 1.6 0.00 0.03 0.00 92 990.0
20260905100641 21 201 0.0 1.6 0.00 0.03 0.00 92 990.0
20260905100609 21 201 0.0 1.6 0.00 0.03 0.00 92 989.9
20260905100600 21 201 0.0 1.6 0.00 0.03 0.00 92 989.9
20260905100343 21 201 0.0 1.6 0.00 0.03 0.00 92 990.0
20260905100305 21 201 0.0 1.6 0.00 0.03 0.00 92 990.0
20260905100255 21 201 0.0 1.6 0.00 0.03 0.00 92 990.0
20260905100035 21 201 0.0 1.6 0.00 0.03 0.00 92 989.9
20260905095936 21 201 0.0 1.6 0.00 0.03 0.00 92 989.9
20260905095836 21 201 0.0 1.6 0.00 0.03 0.00 92 989.9
20260905095736 21 201 0.0 1.6 0.00 0.03 0.00 92 989.8
20260905095635 21 201 0.0 1.6 0.00 0.03 0.00 92 989.9
20260905095533 21 201 0.0 1.6 0.00 0.03 0.00 92 989.9
20260905095433 21 201 0.0 1.6 0.00 0.03 0.00 92 989.8
20260905095331 21 201 0.0 3.2 0.00 0.03 0.00 92 989.9
20260905095218 21 201 1.6 3.2 0.00 0.03 0.00 92 989.8
20260905095116 21 201 1.6 3.2 0.00 0.03 0.00 92 989.8
20260905095015 21 201 1.6 3.2 0.00 0.03 0.00 92 989.8
20260905094945 21 201 1.6 4.8 0.00 0.03 0.00 92 989.8
20260905094936 21 201 1.6 3.2 0.00 0.03 0.00 92 989.8
20260905094716 21 201 1.6 4.8 0.00 0.03 0.00 92 989.8
20260905094616 21 201 1.6 4.8 0.00 0.03 0.00 92 989.8
20260905094511 21 201 3.2 4.8 0.00 0.03 0.00 92 989.8
20260905094441 21 201 3.2 4.8 0.00 0.03 0.00 92 989.8
20260905094431 21 201 3.2 4.8 0.00 0.03 0.00 92 989.7
20260905094213 21 201 1.6 4.8 0.00 0.03 0.00 92 989.8
20260905094112 21 201 1.6 4.8 0.00 0.03 0.00 92 989.7
20260905094023 21 201 1.6 4.8 0.00 0.03 0.00 92 989.8
20260905094013 21 201 1.6 4.8 0.00 0.03 0.00 92 989.8
20260905094006 21 201 1.6 3.2 0.00 0.03 0.00 92 989.7
20260905093950 21 201 1.6 4.8 0.00 0.03 0.00 92 989.8
20260905093610 21 201 1.6 3.2 0.00 0.03 0.00 92 989.7
20260905093512 21 201 0.0 3.2 0.00 0.03 0.00 92 989.7
20260905093409 21 201 0.0 3.2 0.00 0.03 0.00 92 989.7
20260905093307 21 201 0.0 3.2 0.00 0.03 0.00 92 989.6
20260905093230 21 201 0.0 1.6 0.00 0.03 0.00 92 989.7
20260905093223 21 201 0.0 1.6 0.00 0.03 0.00 92 989.7
20260905093004 21 201 0.0 1.6 0.00 0.03 0.00 92 989.6
20260905092901 21 201 0.0 1.6 0.00 0.03 0.00 92 989.7
20260905092803 21 201 0.0 1.6 0.00 0.03 0.00 92 989.6
20260905092659 21 201 0.0 1.6 0.00 0.03 0.00 92 989.6
20260905092557 21 201 0.0 1.6 0.00 0.03 0.00 92 989.6
20260905092459 21 201 0.0 0.0 0.00 0.03 0.00 92 989.6
20260905092356 21 201 0.0 0.0 0.00 0.03 0.00 92 989.6
20260905092256 21 201 0.0 0.0 0.00 0.03 0.00 92 989.7
20260905092225 21 201 0.0 0.0 0.00 0.03 0.00 92 989.6
20260905092213 21 201 0.0 0.0 0.00 0.03 0.00 92 989.6
20260905092018 21 201 0.0 1.6 0.00 0.03 0.00 92 989.7
20260905092011 21 201 0.0 0.0 0.00 0.03 0.00 92 989.6
20260905091750 21 201 0.0 1.6 0.00 0.03 0.00 92 989.6
20260905091651 22 201 0.0 1.6 0.00 0.03 0.00 92 989.5
20260905091548 22 201 0.0 1.6 0.00 0.03 0.00 92 989.6
20260905091442 22 201 0.0 1.6 0.00 0.03 0.00 92 989.6
20260905091340 22 201 0.0 1.6 0.00 0.03 0.00 92 989.6
20260905091241 22 201 0.0 1.6 0.00 0.03 0.00 92 989.6
20260905091139 22 201 0.0 1.6 0.00 0.03 0.00 92 989.6
20260905091041 22 201 0.0 1.6 0.00 0.03 0.00 92 989.6
20260905091007 22 201 0.0 1.6 0.00 0.03 0.00 92 989.6
20260905090956 22 201 0.0 1.6 0.00 0.03 0.00 92 989.7
20260905090738 22 201 0.0 1.6 0.00 0.03 0.00 92 989.6
20260905090731 22 201 0.0 1.6 0.00 0.03 0.00 92 989.7
20260905090727 22 201 0.0 1.6 0.00 0.03 0.00 92 989.7
20260905090710 22 201 0.0 1.6 0.00 0.03 0.00 92 989.6
20260905090332 22 201 0.0 3.2 0.00 0.03 0.00 92 989.7
20260905090232 22 201 0.0 3.2 0.00 0.03 0.00 92 989.7
20260905090131 22 201 1.6 3.2 0.00 0.03 0.00 92 989.6
20260905090030 22 201 1.6 4.8 0.00 0.03 0.00 92 989.7
20260905085958 22 201 1.6 4.8 0.00 0.03 0.00 92 989.7
20260905085950 22 201 1.6 4.8 0.00 0.03 0.00 92 989.7
20260905085732 22 201 1.6 4.8 0.00 0.03 0.00 92 989.7
20260905085629 22 201 1.6 4.8 0.00 0.03 0.00 92 989.7
20260905085527 22 201 1.6 4.8 0.00 0.03 0.00 92 989.7
20260905085426 22 201 3.2 4.8 0.00 0.03 0.00 92 989.7
20260905085324 22 201 3.2 6.4 0.00 0.03 0.00 92 989.7
20260905085224 22 201 3.2 6.4 0.00 0.03 0.00 92 989.8
20260905085122 22 201 3.2 6.4 0.00 0.03 0.00 92 989.8
20260905085023 22 201 1.6 6.4 0.00 0.03 0.00 92 989.8
20260905084923 22 201 1.6 6.4 0.00 0.03 0.00 92 989.7
20260905084823 22 201 1.6 6.4 0.00 0.03 0.00 92 989.7
20260905084748 22 201 1.6 6.4 0.00 0.03 0.00 92 989.7
20260905084742 22 98 1.6 6.4 0.00 0.03 0.00 92 989.7
20260905084737 22 98 1.6 6.4 0.00 0.03 0.00 92 989.7
20260905084733 22 98 3.2 6.4 0.00 0.03 0.00 92 989.6
20260905084728 22 98 3.2 6.4 0.00 0.03 0.00 92 989.7
20260905084718 22 201 1.6 6.4 0.00 0.03 0.00 92 989.7
20260905084659 22 201 1.6 6.4 0.00 0.03 0.00 92 989.8
20260905084525 22 201 1.6 6.4 0.00 0.03 0.00 92 989.6
20260905083912 22 98 3.2 6.4 0.00 0.03 0.00 92 989.7
20260905083812 22 98 3.2 6.4 0.00 0.03 0.00 92 989.6
20260905083711 22 98 3.2 6.4 0.00 0.03 0.00 92 989.7
20260905083612 22 98 1.6 6.4 0.00 0.03 0.00 92 989.6
20260905083511 22 98 1.6 4.8 0.00 0.03 0.00 92 989.6
20260905083410 22 98 1.6 4.8 0.00 0.03 0.00 92 989.7
20260905083310 22 98 1.6 4.8 0.00 0.03 0.00 92 989.5
20260905083209 22 98 1.6 4.8 0.00 0.03 0.00 92 989.6
20260905083109 22 98 0.0 4.8 0.00 0.03 0.00 92 989.6
20260905083011 22 98 0.0 4.8 0.00 0.03 0.00 92 989.6
20260905082907 22 98 0.0 3.2 0.00 0.03 0.00 92 989.6
20260905082809 22 98 0.0 3.2 0.00 0.03 0.00 92 989.6
20260905082707 22 98 0.0 3.2 0.00 0.03 0.00 92 989.5
20260905082604 22 98 0.0 3.2 0.00 0.03 0.00 92 989.5
20260905082505 22 98 0.0 3.2 0.00 0.03 0.00 92 989.7
20260905082425 22 98 0.0 3.2 0.00 0.03 0.00 92 989.7
20260905082421 22 98 0.0 3.2 0.00 0.03 0.00 92 989.8
20260905082415 22 98 0.0 3.2 0.00 0.03 0.00 92 989.8
20260905082405 22 98 0.0 3.2 0.00 0.03 0.00 92 989.7
20260905082351 22 98 0.0 3.2 0.00 0.03 0.00 92 989.7
20260905081853 22 98 0.0 3.2 0.00 0.03 0.00 92 989.7
20260905081752 22 98 0.0 3.2 0.00 0.03 0.00 92 989.7
20260905081652 22 98 1.6 3.2 0.00 0.03 0.00 92 989.7
20260905081620 22 98 1.6 4.8 0.00 0.03 0.00 92 989.7
20260905081611 22 98 1.6 3.2 0.00 0.03 0.00 92 989.7
20260905081350 22 98 1.6 4.8 0.00 0.03 0.00 92 989.7
20260905081250 22 98 1.6 4.8 0.00 0.03 0.00 92 989.7
20260905081150 22 98 1.6 4.8 0.00 0.03 0.00 92 989.8
20260905081047 22 98 1.6 4.8 0.00 0.03 0.00 92 989.8
20260905080939 22 98 1.6 4.8 0.00 0.03 0.00 92 989.8
20260905080840 22 98 1.6 4.8 0.00 0.03 0.00 92 989.7
20260905080739 22 98 1.6 4.8 0.00 0.03 0.00 92 989.8
20260905080638 22 98 1.6 4.8 0.00 0.03 0.00 92 989.9
20260905080536 22 98 1.6 4.8 0.00 0.03 0.00 92 989.8
20260905080432 22 98 0.0 3.2 0.00 0.03 0.00 92 989.9
20260905080425 22 98 0.0 1.6 0.00 0.03 0.00 92 989.9
20260905080419 22 98 0.0 1.6 0.00 0.03 0.00 92 989.8
20260905080405 22 98 0.0 3.2 0.00 0.03 0.00 92 989.9
20260905080030 22 98 0.0 1.6 0.00 0.03 0.00 92 989.8
20260905075929 22 98 0.0 1.6 0.00 0.03 0.00 92 989.9
20260905075828 22 98 0.0 1.6 0.00 0.03 0.00 92 989.8
20260905075727 22 98 0.0 1.6 0.00 0.03 0.00 92 989.8
20260905075627 22 98 0.0 1.6 0.00 0.03 0.00 92 989.8
20260905075525 22 98 0.0 1.6 0.00 0.03 0.00 92 989.8
20260905075424 22 98 0.0 1.6 0.00 0.03 0.00 92 989.8
20260905075323 22 98 0.0 1.6 0.00 0.03 0.00 92 989.9
20260905075222 22 98 0.0 3.2 0.00 0.03 0.00 92 989.9
20260905075121 22 98 1.6 3.2 0.00 0.03 0.00 92 989.8
20260905075049 22 98 1.6 3.2 0.00 0.03 0.00 92 989.9
20260905075038 22 98 1.6 3.2 0.00 0.03 0.00 92 989.8
20260905074816 22 98 1.6 3.2 0.00 0.03 0.00 92 989.9
20260905074742 22 98 1.6 3.2 0.00 0.03 0.00 92 989.9
20260905074733 22 98 1.6 3.2 0.00 0.03 0.00 92 989.9
20260905074543 22 98 3.2 4.8 0.00 0.03 0.00 92 989.8
20260905074533 22 98 3.2 3.2 0.00 0.03 0.00 92 989.9
20260905074313 22 98 3.2 4.8 0.00 0.03 0.00 92 989.9
20260905074213 22 98 3.2 4.8 0.00 0.03 0.00 92 989.9
20260905074113 22 98 3.2 4.8 0.00 0.03 0.00 92 989.8
20260905074010 22 98 3.2 4.8 0.00 0.03 0.00 92 989.8
20260905073936 22 98 3.2 4.8 0.00 0.03 0.00 92 989.8
20260905073927 22 98 3.2 4.8 0.00 0.03 0.00 92 989.8
20260905073708 22 98 3.2 4.8 0.00 0.03 0.00 92 989.8
20260905073607 22 98 3.2 4.8 0.00 0.03 0.00 92 989.8
20260905073534 22 98 1.6 4.8 0.00 0.03 0.00 92 989.8
20260905073529 22 98 1.6 4.8 0.00 0.03 0.00 92 989.8
20260905073523 22 98 1.6 4.8 0.00 0.03 0.00 92 989.8
20260905073512 22 98 3.2 4.8 0.00 0.03 0.00 92 989.8
20260905073457 22 98 3.2 4.8 0.00 0.03 0.00 92 989.8
20260905073000 22 98 1.6 4.8 0.00 0.03 0.00 92 989.7
20260905072901 22 98 1.6 4.8 0.00 0.03 0.00 92 989.7
20260905072818 22 98 1.6 3.2 0.00 0.03 0.00 92 989.8
20260905072811 22 98 1.6 4.8 0.00 0.03 0.00 92 989.8
20260905072552 22 98 1.6 3.2 0.00 0.03 0.00 92 989.8
20260905072451 22 98 1.6 3.2 0.00 0.03 0.00 92 989.7
20260905072351 22 98 1.6 3.2 0.00 0.03 0.00 92 989.7
20260905072251 22 98 1.6 3.2 0.00 0.03 0.00 92 989.8
20260905072216 22 98 1.6 3.2 0.00 0.03 0.00 92 989.8
20260905072207 22 98 1.6 3.2 0.00 0.03 0.00 92 989.8
20260905071949 22 98 1.6 3.2 0.00 0.03 0.00 92 989.7
20260905071847 22 98 1.6 3.2 0.00 0.03 0.00 91 989.8
20260905071748 22 98 1.6 3.2 0.00 0.03 0.00 91 989.8
20260905071646 22 98 1.6 3.2 0.00 0.03 0.00 91 989.8
20260905071543 22 98 1.6 3.2 0.00 0.03 0.00 91 989.8
20260905071444 22 98 1.6 3.2 0.00 0.03 0.00 91 989.8
20260905071410 22 98 1.6 3.2 0.00 0.03 0.00 91 989.7
20260905071402 22 98 1.6 3.2 0.00 0.03 0.00 91 989.8
20260905071144 22 98 1.6 3.2 0.00 0.03 0.00 91 989.7
20260905071043 22 98 1.6 3.2 0.00 0.03 0.00 91 989.8
20260905070944 22 98 1.6 3.2 0.00 0.03 0.00 91 989.7
20260905070843 22 98 1.6 3.2 0.00 0.03 0.00 91 989.7
20260905070743 22 98 0.0 3.2 0.00 0.03 0.00 91 989.7
20260905070646 22 98 0.0 3.2 0.00 0.03 0.00 92 989.7
20260905070543 22 98 0.0 3.2 0.00 0.03 0.00 92 989.7
20260905070443 22 98 0.0 1.6 0.00 0.03 0.00 92 989.6
20260905070342 22 98 0.0 1.6 0.00 0.03 0.00 92 989.7
20260905070310 22 98 0.0 3.2 0.00 0.03 0.00 92 989.8
20260905070301 22 98 0.0 3.2 0.00 0.03 0.00 92 989.7
20260905070045 22 98 0.0 3.2 0.00 0.03 0.00 92 989.8
20260905065942 22 98 0.0 3.2 0.00 0.03 0.00 92 989.8
20260905065844 22 98 1.6 3.2 0.00 0.03 0.00 92 989.7
20260905065743 22 98 1.6 3.2 0.00 0.03 0.00 92 989.7
20260905065645 22 98 1.6 3.2 0.00 0.03 0.00 92 989.8
20260905065539 22 98 1.6 3.2 0.00 0.03 0.00 92 989.8
20260905065439 22 98 1.6 3.2 0.00 0.03 0.00 92 989.8
20260905065339 22 98 1.6 3.2 0.00 0.03 0.00 92 989.8
20260905065239 22 98 1.6 3.2 0.00 0.03 0.00 92 989.7
20260905065139 22 98 1.6 3.2 0.00 0.03 0.00 92 989.8
20260905065039 22 98 1.6 3.2 0.00 0.03 0.00 92 989.7
20260905065006 22 98 1.6 3.2 0.00 0.03 0.00 91 989.8
20260905064957 22 98 1.6 3.2 0.00 0.03 0.00 91 989.9
20260905064736 22 98 1.6 4.8 0.00 0.03 0.00 91 989.9
20260905064636 22 98 1.6 4.8 0.00 0.03 0.00 91 989.9
20260905064536 22 98 1.6 4.8 0.00 0.03 0.00 91 989.7
20260905064438 22 98 3.2 4.8 0.00 0.03 0.00 91 989.8
20260905064432 22 98 3.2 4.8 0.00 0.03 0.00 91 989.8
20260905064427 22 98 3.2 4.8 0.00 0.03 0.00 91 989.8
20260905064410 22 98 3.2 4.8 0.00 0.03 0.00 91 989.8
20260905064034 22 98 3.2 4.8 0.00 0.03 0.00 91 989.8
20260905063936 22 98 3.2 4.8 0.00 0.03 0.00 91 989.8
20260905063840 22 98 3.2 4.8 0.00 0.03 0.00 91 989.8
20260905063735 22 98 1.6 4.8 0.00 0.03 0.00 91 989.8
20260905063704 22 98 1.6 4.8 0.00 0.03 0.00 91 989.8
20260905063655 22 98 1.6 4.8 0.00 0.03 0.00 91 989.9
20260905063436 22 98 1.6 4.8 0.00 0.03 0.00 91 989.9
20260905063336 22 98 1.6 4.8 0.00 0.03 0.00 91 989.9
20260905063235 22 98 1.6 3.2 0.00 0.03 0.00 91 989.9
20260905063139 22 98 1.6 3.2 0.00 0.03 0.00 91 989.9
20260905063035 22 98 1.6 3.2 0.00 0.03 0.00 91 990.0
20260905062939 22 98 1.6 3.2 0.00 0.03 0.00 91 990.0
20260905062836 22 98 1.6 3.2 0.00 0.03 0.00 91 990.1
20260905062735 22 98 1.6 3.2 0.00 0.03 0.00 91 990.0
20260905062635 22 98 1.6 3.2 0.00 0.03 0.00 91 990.0
20260905062535 22 98 0.0 3.2 0.00 0.03 0.00 92 990.1
20260905062436 22 98 0.0 3.2 0.00 0.03 0.00 91 990.1
20260905062403 22 98 0.0 3.2 0.00 0.03 0.00 91 990.2
20260905062354 22 98 0.0 3.2 0.00 0.03 0.00 91 990.0
20260905062132 22 98 0.0 3.2 0.00 0.03 0.00 91 990.0
20260905062100 22 98 0.0 1.6 0.00 0.03 0.00 91 990.0
20260905062052 22 98 0.0 1.6 0.00 0.03 0.00 91 990.1
20260905061859 22 98 0.0 3.2 0.00 0.03 0.00 91 990.0
20260905061849 22 98 0.0 3.2 0.00 0.03 0.00 91 990.0
20260905061653 22 98 0.0 3.2 0.00 0.03 0.00 91 989.9
20260905061646 22 98 0.0 3.2 0.00 0.03 0.00 91 989.9
20260905061427 22 98 0.0 3.2 0.00 0.03 0.00 91 990.0
20260905061328 22 98 0.0 3.2 0.00 0.03 0.00 91 989.9
20260905061255 22 98 0.0 3.2 0.00 0.03 0.00 91 989.9
20260905061246 22 98 0.0 3.2 0.00 0.03 0.00 91 989.9
20260905061029 22 98 0.0 3.2 0.00 0.03 0.00 91 989.9
20260905060927 22 98 0.0 3.2 0.00 0.03 0.00 91 989.9
20260905060829 23 98 0.0 3.2 0.00 0.03 0.00 91 989.8
20260905060757 23 98 0.0 1.6 0.00 0.03 0.00 91 989.9
20260905060748 23 98 0.0 1.6 0.00 0.03 0.00 91 989.8
20260905060528 23 98 0.0 1.6 0.00 0.03 0.00 91 989.8
20260905060427 23 98 0.0 1.6 0.00 0.03 0.00 91 989.8
20260905060328 23 98 0.0 1.6 0.00 0.03 0.00 91 989.8
20260905060322 23 98 0.0 1.6 0.00 0.03 0.00 91 989.8
20260905060317 23 98 0.0 1.6 0.00 0.03 0.00 91 989.9
20260905060301 23 98 0.0 1.6 0.00 0.03 0.00 91 989.9
20260905055927 23 98 0.0 1.6 0.00 0.03 0.00 91 989.9
20260905055829 23 98 0.0 1.6 0.00 0.03 0.00 91 989.9
20260905055755 23 98 0.0 1.6 0.00 0.03 0.00 91 990.0
20260905055746 23 98 0.0 1.6 0.00 0.03 0.00 91 989.9
20260905055527 23 98 0.0 1.6 0.00 0.03 0.00 91 990.0
20260905055428 23 98 0.0 1.6 0.00 0.03 0.00 91 990.0
20260905055326 23 98 0.0 0.0 0.00 0.03 0.00 91 990.0
20260905055253 23 98 0.0 0.0 0.00 0.03 0.00 91 989.9
20260905055245 23 98 0.0 0.0 0.00 0.03 0.00 91 989.9
20260905055050 23 98 0.0 1.6 0.00 0.03 0.00 91 990.0
20260905055042 23 98 0.0 0.0 0.00 0.03 0.00 91 989.9
20260905054825 23 98 0.0 3.2 0.00 0.03 0.00 91 990.0
20260905054724 23 98 0.0 3.2 0.00 0.03 0.00 91 989.9
20260905054653 23 98 0.0 3.2 0.00 0.03 0.00 91 990.0
20260905054643 23 98 0.0 3.2 0.00 0.03 0.00 91 989.9
20260905054423 23 98 0.0 3.2 0.00 0.03 0.00 91 990.0
20260905054324 23 98 0.0 3.2 0.00 0.03 0.00 91 990.0
20260905054224 23 98 0.0 3.2 0.00 0.03 0.00 91 990.0
20260905054121 23 98 1.6 4.8 0.00 0.03 0.00 91 990.0
20260905054022 23 98 1.6 4.8 0.00 0.03 0.00 91 990.0
20260905053918 23 98 1.6 4.8 0.00 0.03 0.00 91 990.0
20260905053817 23 98 1.6 4.8 0.00 0.03 0.00 91 990.0
20260905053711 23 98 1.6 4.8 0.00 0.03 0.00 91 990.1
20260905053642 23 98 1.6 4.8 0.00 0.03 0.00 91 990.1
20260905053633 23 98 1.6 4.8 0.00 0.03 0.00 91 990.1
20260905053408 23 98 1.6 4.8 0.00 0.03 0.00 91 990.1
20260905053309 23 98 1.6 6.4 0.00 0.03 0.00 91 990.0
20260905053209 23 98 3.2 6.4 0.00 0.03 0.00 91 990.1
20260905053109 23 98 1.6 6.4 0.00 0.03 0.00 91 990.0
20260905053009 23 98 3.2 6.4 0.00 0.03 0.00 91 990.0
20260905052909 23 98 3.2 6.4 0.00 0.03 0.00 91 990.0
20260905052809 23 98 3.2 6.4 0.00 0.03 0.00 91 990.0
20260905052706 23 98 3.2 6.4 0.00 0.03 0.00 90 990.0
20260905052603 23 98 3.2 6.4 0.00 0.03 0.00 90 989.9
20260905052503 23 98 3.2 6.4 0.00 0.03 0.00 90 990.0
20260905052402 23 98 3.2 6.4 0.00 0.03 0.00 90 990.0
20260905052328 23 98 1.6 4.8 0.00 0.03 0.00 90 990.0
20260905052320 23 98 1.6 4.8 0.00 0.03 0.00 90 990.0
20260905052123 23 98 1.6 4.8 0.00 0.03 0.00 90 990.0
20260905052116 23 98 1.6 4.8 0.00 0.03 0.00 90 990.0
20260905051855 23 98 1.6 4.8 0.00 0.03 0.00 90 990.1
20260905051756 23 98 1.6 4.8 0.00 0.03 0.00 90 990.0
20260905051654 23 98 0.0 3.2 0.00 0.03 0.00 90 990.1
20260905051553 23 98 0.0 3.2 0.00 0.03 0.00 90 990.2
20260905051451 23 98 0.0 3.2 0.00 0.03 0.00 90 990.1
20260905051350 23 98 0.0 0.0 0.00 0.03 0.00 90 990.1
20260905051250 23 98 0.0 0.0 0.00 0.03 0.00 90 990.0
20260905051147 23 98 0.0 0.0 0.00 0.03 0.00 90 990.0
20260905051046 23 98 0.0 0.0 0.00 0.03 0.00 90 990.0
20260905050943 23 98 0.0 0.0 0.00 0.03 0.00 90 990.1
20260905050844 23 98 0.0 0.0 0.00 0.03 0.00 90 990.1
20260905050741 23 98 0.0 0.0 0.00 0.03 0.00 90 990.1
20260905050641 23 98 0.0 0.0 0.00 0.03 0.00 90 990.0
20260905050539 23 98 0.0 0.0 0.00 0.03 0.00 90 990.1
20260905050441 23 98 0.0 0.0 0.00 0.03 0.00 90 990.2
20260905050340 23 98 0.0 0.0 0.00 0.03 0.00 90 990.2
20260905050240 23 98 0.0 0.0 0.00 0.03 0.00 90 990.2
20260905050139 23 98 0.0 0.0 0.00 0.03 0.00 90 990.2
20260905050039 23 98 0.0 0.0 0.00 0.03 0.00 90 990.2
20260905045939 23 98 0.0 0.0 0.00 0.03 0.03 90 990.2
20260905045835 23 98 0.0 0.0 0.00 0.03 0.03 90 990.2
20260905045738 23 98 0.0 0.0 0.00 0.03 0.03 90 990.2
20260905045701 23 98 0.0 0.0 0.00 0.03 0.03 90 990.2
20260905045652 23 98 0.0 0.0 0.00 0.03 0.03 91 990.1
20260905045433 23 98 0.0 0.0 0.00 0.03 0.03 91 990.1
20260905045358 23 98 0.0 0.0 0.00 0.03 0.03 90 990.2
20260905045350 23 98 0.0 0.0 0.00 0.03 0.03 90 990.2
20260905045129 23 98 0.0 0.0 0.00 0.03 0.03 91 990.1
20260905045026 23 98 0.0 0.0 0.00 0.03 0.03 90 990.2
20260905044954 23 98 0.0 0.0 0.00 0.03 0.03 91 990.1
20260905044946 23 98 0.0 0.0 0.00 0.03 0.03 91 990.1
20260905044753 23 98 0.0 0.0 0.00 0.03 0.03 90 990.2
20260905044743 23 98 0.0 0.0 0.00 0.03 0.03 90 990.2